GFSFLT2_925_thetae_000.txt.gz
Theta_e
331 331 328 322 322 322 322 323 323 322 323 323 323 323 323 322 320 319 318 318 318 317 317 317 320 322 324 326 327 327 330 330
331 332 331 332 330 322 322 321 321 322 322 323 323 324 323 322 319 320 317 315 314 314 313 313 313 316 320 322 324 326 328 328
333 332 332 331 329 328 324 323 323 323 327 325 327 328 328 326 321 318 317 316 315 312 311 310 310 315 315 317 320 323 325 325
334 334 333 331 328 330 329 329 330 331 331 331 329 329 329 325 325 319 316 316 318 316 315 313 316 317 318 318 319 321 321 322
334 335 334 332 328 329 327 327 328 329 332 332 331 330 328 327 326 324 324 323 322 321 321 320 320 318 317 318 318 318 317 318
336 335 335 334 329 328 328 327 327 327 329 332 330 328 327 327 324 323 322 322 322 321 321 321 316 314 313 314 313 312 311 313
337 337 335 331 333 329 329 328 326 327 327 327 328 326 325 323 321 320 319 320 320 320 319 316 311 309 310 311 310 310 311 310
338 337 333 328 328 329 327 325 324 324 323 322 325 325 322 319 317 316 316 316 318 318 317 313 311 309 309 310 309 309 310 309
337 335 327 327 326 324 322 320 319 319 319 319 320 320 318 318 316 316 316 316 318 319 318 314 312 309 309 309 309 309 308 308
333 330 323 323 323 322 321 320 320 319 319 318 319 319 319 318 316 316 316 316 316 316 316 315 313 310 309 309 308 308 307 307
331 327 319 320 322 322 321 321 319 316 316 315 316 316 316 316 315 315 316 316 315 315 315 314 313 311 309 309 309 308 307 307
329 322 320 322 322 320 317 316 315 314 313 313 313 313 313 314 314 315 316 316 315 314 315 314 313 311 310 308 308 309 308 307
326 323 318 317 315 314 314 314 313 313 313 312 313 312 312 312 312 313 313 314 314 315 315 315 315 313 311 310 309 309 309 308
318 315 314 313 313 313 312 312 312 312 312 311 311 308 308 308 309 310 310 311 311 313 314 314 315 314 313 311 313 310 310 309
315 314 313 312 312 311 312 312 311 311 310 309 307 307 306 306 307 308 308 308 308 309 310 311 312 313 313 312 313 313 312 309
313 312 312 310 310 310 310 310 309 309 308 307 306 305 305 305 305 306 306 306 306 306 306 307 308 310 310 311 311 311 314 312
313 312 311 310 309 309 309 309 308 308 307 305 304 303 304 304 304 304 305 305 305 305 306 306 307 308 308 309 309 309 308 309
312 311 310 310 309 307 308 309 308 307 305 304 303 303 303 303 303 303 304 303 303 303 303 303 303 303 303 302 303 301 303 305
310 310 310 309 309 307 307 307 306 305 304 303 302 302 301 302 302 302 302 302 301 301 301 301 299 299 298 297 295 295 295 296
311 310 310 308 307 306 305 306 306 304 303 301 301 301 301 302 301 301 301 301 301 301 299 297 297 297 297 295 295 295 293 292

GFSFLT2_925_thetae_003.txt.gz
Theta_e
330 330 329 322 322 322 323 323 323 324 324 323 323 322 322 320 317 316 313 312 313 313 312 311 312 314 317 320 323 325 326 327
332 331 330 332 332 322 322 321 321 322 322 322 322 328 326 324 323 320 315 315 314 313 311 310 309 309 312 316 320 323 327 325
332 332 330 330 328 325 325 324 324 326 329 329 330 330 328 327 326 322 316 316 317 318 316 313 313 317 317 316 316 323 323 324
334 334 332 330 325 327 326 326 329 330 330 330 329 329 328 326 327 326 325 325 323 322 321 321 320 319 318 319 319 319 319 321
333 337 333 329 326 327 327 326 326 328 330 330 328 328 328 327 326 326 326 325 323 322 323 322 321 318 317 316 317 317 316 316
334 337 332 330 328 327 327 326 326 326 327 328 327 326 326 325 323 322 320 320 321 321 321 321 319 314 312 313 313 312 310 312
332 335 330 328 329 329 329 328 327 326 326 325 325 324 324 322 320 319 317 317 318 319 318 318 316 312 310 312 311 311 311 311
332 334 331 326 326 329 329 326 324 323 322 321 322 323 322 320 318 317 317 317 317 317 318 318 315 312 311 311 312 310 310 311
333 334 329 325 326 326 323 320 320 320 320 320 320 320 320 320 319 318 317 317 317 317 318 318 317 315 312 311 311 311 310 310
332 332 326 323 324 322 321 321 320 321 320 319 320 320 320 320 318 318 317 318 318 317 317 317 317 316 314 312 311 311 310 310
330 331 323 322 323 322 322 321 320 318 317 317 317 317 317 317 317 317 317 318 318 318 317 317 317 316 316 314 312 311 311 310
328 329 321 321 323 322 319 318 318 317 317 316 316 316 317 317 317 317 317 317 317 317 319 318 318 317 316 315 315 312 311 311
326 325 323 321 320 318 316 316 316 316 316 316 316 315 314 313 313 313 314 314 315 315 316 316 317 316 318 318 317 314 313 311
325 322 318 317 316 316 315 315 315 315 315 313 313 312 312 311 311 311 310 311 311 312 313 315 315 315 316 317 318 316 315 314
319 318 316 315 314 314 314 314 313 313 313 312 312 311 310 309 308 308 309 309 309 310 310 310 312 312 312 314 316 316 316 313
316 315 314 313 313 313 313 312 312 312 312 311 310 308 307 306 307 307 307 307 307 307 306 308 308 309 309 309 310 312 315 315
316 315 313 313 312 311 312 312 313 312 311 309 307 306 306 305 305 305 305 305 305 306 306 306 305 306 306 307 307 307 308 308
315 314 313 313 312 312 313 312 311 309 308 307 306 305 304 304 303 304 304 304 304 304 304 304 303 302 302 301 301 301 301 301
314 313 313 313 313 311 309 308 308 308 307 306 304 303 303 302 303 303 302 302 302 303 303 301 299 299 298 299 298 297 297 297
315 314 313 312 311 310 310 309 308 306 305 303 302 302 302 302 302 302 301 301 300 300 300 300 298 298 297 296 296 296 296 295

GFSFLT2_925_thetae_006.txt.gz
Theta_e
329 323 320 320 321 322 322 322 322 321 321 321 320 322 323 321 318 313 312 312 313 313 312 310 309 308 308 309 311 313 320 327
331 331 332 333 323 320 320 320 320 320 323 324 327 329 328 326 324 321 317 313 316 317 317 314 313 313 317 317 315 316 326 323
330 330 330 332 329 323 326 321 326 330 330 329 330 330 329 328 325 325 324 324 323 322 321 321 319 320 319 318 318 321 323 322
333 331 330 326 327 328 327 328 329 330 330 329 330 328 328 327 328 327 326 326 323 324 322 322 322 321 318 318 319 319 318 316
336 333 330 329 325 328 328 328 327 329 331 330 329 327 327 326 325 326 323 323 325 322 323 322 322 320 316 316 316 316 316 317
336 334 330 329 329 328 327 327 325 326 326 328 326 325 325 323 322 320 319 318 318 320 320 320 319 318 314 312 312 313 312 310
333 333 329 330 325 329 329 327 327 323 326 325 324 324 323 321 320 318 317 317 317 317 317 318 318 316 313 311 311 312 311 310
333 333 328 326 328 329 329 326 324 323 322 320 322 322 322 320 319 319 318 318 317 317 317 318 319 318 316 313 312 311 311 311
336 330 328 325 326 327 326 321 320 321 320 320 320 320 320 320 320 319 319 318 318 317 318 318 317 318 317 316 314 312 312 311
331 333 327 324 325 323 322 322 321 321 321 319 320 320 319 319 319 318 318 318 318 319 318 318 319 318 317 317 316 314 312 312
333 329 326 323 324 323 322 321 321 319 318 318 317 317 317 317 317 317 317 317 318 319 319 319 320 319 319 318 316 316 314 312
331 329 323 323 323 323 320 319 318 318 317 317 317 316 316 314 314 314 314 316 315 316 317 315 315 315 317 317 317 316 316 315
326 324 323 322 322 319 317 316 316 316 316 314 313 313 313 312 311 311 310 311 312 311 311 311 312 313 314 316 314 314 316 317
324 322 319 317 317 316 315 315 315 314 314 313 313 312 311 310 309 309 310 309 309 309 310 310 309 309 312 312 311 311 312 312
318 317 315 314 315 314 314 314 313 313 313 313 312 312 311 308 307 307 307 307 307 307 308 308 309 307 307 309 309 309 309 309
316 315 314 313 313 313 313 313 313 314 314 313 311 309 307 306 305 305 305 305 305 306 306 306 306 307 306 306 304 303 305 306
316 315 314 314 313 312 313 314 313 312 310 310 308 307 305 304 304 303 304 303 304 305 304 304 305 304 303 301 301 299 300 300
315 314 314 314 314 314 312 309 309 309 309 308 305 304 303 303 302 302 303 303 302 304 303 303 302 301 300 300 299 299 298 297
316 316 315 314 313 312 311 310 309 308 306 305 303 302 303 302 302 301 302 302 301 300 299 301 300 299 299 298 297 297 297 296
316 315 314 314 313 312 311 308 306 306 304 302 302 302 301 300 301 301 300 299 298 298 298 298 298 298 298 297 297 296 296 296

GFSFLT2_925_thetae_009.txt.gz
Theta_e
322 320 319 319 320 321 320 319 318 318 319 319 323 325 323 322 323 321 318 313 319 317 318 316 313 312 317 317 317 312 325 326
326 330 327 321 314 317 317 318 319 321 323 326 329 328 327 326 324 325 324 324 322 321 321 321 319 320 319 318 318 318 322 323
331 331 332 324 324 320 323 329 329 330 328 330 330 329 327 327 326 327 325 324 323 322 322 322 322 321 320 317 317 318 320 319
330 329 331 328 327 326 327 328 329 329 328 330 329 328 327 327 327 327 323 323 323 320 321 321 322 321 319 313 315 316 316 316
331 329 327 328 327 327 327 329 330 329 330 327 328 327 327 324 323 320 319 319 320 318 320 320 320 319 318 314 311 310 312 314
332 328 328 326 324 328 327 328 328 330 327 328 326 325 324 322 320 318 318 317 317 318 319 317 318 318 316 314 312 311 311 310
333 324 321 327 329 328 328 327 327 324 326 325 320 324 322 320 319 318 318 318 317 317 317 317 317 318 317 316 313 313 312 311
332 329 327 324 328 329 327 326 322 324 323 321 318 319 321 320 319 319 318 319 319 318 317 317 318 318 318 318 317 314 313 312
330 328 329 327 329 327 328 323 320 321 320 320 320 319 320 319 319 319 317 317 318 317 317 318 318 317 318 318 318 317 316 313
327 323 326 325 327 324 321 321 320 321 320 320 320 319 319 317 316 315 316 316 316 316 317 318 318 318 317 317 317 317 316 315
329 327 326 325 324 322 322 321 319 319 318 317 316 316 316 314 312 311 312 312 312 313 313 311 311 310 311 312 314 315 316 315
327 329 326 324 322 322 322 320 317 316 315 314 314 313 313 312 311 311 310 309 310 310 309 309 309 310 310 310 312 312 314 312
328 326 323 322 322 317 315 315 315 314 313 313 313 313 312 312 311 309 309 309 307 307 307 305 307 308 308 308 308 308 309 309
316 316 315 315 315 314 314 315 314 314 314 313 313 312 312 309 307 306 306 306 305 305 304 306 307 306 307 307 305 307 307 307
315 314 314 314 314 314 313 313 313 313 313 313 310 309 307 305 304 304 303 305 304 303 303 305 305 305 306 305 303 304 301 304
314 314 314 313 313 313 312 313 314 313 311 309 309 305 304 303 303 302 302 302 303 303 303 305 304 304 304 303 301 299 300 299
315 314 314 314 313 313 312 312 309 309 310 306 305 304 302 302 302 301 301 302 302 302 303 302 302 302 301 300 300 299 298 297
315 315 315 314 314 313 311 310 309 307 306 305 304 302 302 301 301 301 302 302 301 300 300 301 301 300 300 299 298 298 297 296
316 316 315 314 313 312 310 307 306 305 304 303 302 302 301 301 299 299 299 298 298 298 298 298 298 298 298 297 297 297 296 296
315 314 314 313 311 308 306 305 305 305 303 301 301 301 300 298 298 298 298 297 297 297 296 296 296 296 296 296 295 295 296 296

GFSFLT2_925_thetae_012.txt.gz
Theta_e
328 325 323 321 321 319 319 318 318 318 318 322 326 326 324 323 324 323 323 322 321 320 321 320 318 318 317 317 317 318 322 322
320 319 316 314 316 317 316 317 319 319 327 328 327 326 325 326 325 325 324 323 322 321 321 321 320 319 318 313 316 318 320 319
326 326 319 316 314 316 320 327 326 327 329 329 328 327 326 326 326 326 324 323 323 321 320 321 321 319 318 315 311 313 316 316
330 329 325 324 320 327 327 326 328 327 329 329 328 327 328 327 326 324 322 321 320 319 319 320 320 319 318 316 313 311 309 313
330 329 328 327 326 327 327 328 328 327 329 327 327 327 327 324 322 319 318 317 317 318 319 318 316 317 318 317 315 314 313 309
329 327 328 327 327 327 327 328 329 330 328 328 326 325 323 321 320 317 318 317 317 317 317 316 316 317 317 318 317 315 314 313
328 328 327 326 326 327 327 327 328 330 328 325 321 323 321 320 319 319 318 319 318 319 318 317 317 318 318 318 318 318 316 314
329 327 328 329 328 327 327 326 323 326 324 323 318 317 320 319 319 319 317 317 317 316 317 317 316 318 318 318 318 318 317 314
327 324 326 324 328 328 326 323 323 322 321 320 320 319 320 319 317 315 313 313 314 314 315 316 315 313 311 310 311 311 313 315
329 325 327 328 329 327 327 320 320 320 320 320 320 320 318 316 312 311 311 311 311 311 311 311 310 309 309 309 310 310 312 311
327 324 327 326 327 324 321 320 319 317 318 317 316 316 315 314 313 313 311 310 309 309 308 307 306 305 306 306 307 307 308 310
324 326 324 325 323 322 320 317 316 314 314 314 313 312 312 312 311 310 309 309 308 307 306 306 304 304 304 303 303 302 302 308
325 327 326 322 317 318 315 315 314 313 312 312 313 313 311 311 308 307 306 306 305 304 304 303 303 303 305 304 304 303 307 305
319 317 318 315 316 315 315 314 313 313 313 312 310 307 306 306 304 303 303 303 303 303 303 304 304 304 305 305 302 303 303 303
313 314 314 314 313 313 313 313 313 313 312 310 308 306 304 303 302 302 301 301 302 302 302 302 304 304 304 304 301 301 299 301
314 314 314 314 313 314 314 313 313 310 309 308 305 304 302 302 301 301 300 301 302 302 302 302 302 302 302 302 301 300 300 299
314 314 313 313 313 313 313 312 309 309 307 305 304 302 301 301 300 300 300 300 300 299 299 300 300 300 300 300 299 299 298 296
314 315 313 313 313 313 311 309 308 306 304 303 302 301 301 301 300 298 297 297 297 297 297 297 297 296 297 297 296 297 296 296
315 313 312 312 311 308 306 305 305 304 303 302 302 301 300 299 296 295 295 294 294 294 294 294 293 293 294 295 294 295 295 295
312 310 307 307 305 305 306 305 304 304 303 302 301 300 298 295 293 293 293 293 293 293 292 292 292 292 292 292 292 292 294 293

GFSFLT2_925_thetae_015.txt.gz
Theta_e
337 334 330 327 324 322 320 318 316 316 318 324 325 322 324 324 324 323 321 321 319 319 319 318 318 317 316 311 313 318 319 318
326 323 321 320 319 319 317 316 317 319 324 326 325 325 325 325 325 324 323 322 321 319 320 319 318 318 317 315 312 309 311 315
319 316 315 315 316 315 316 318 319 326 327 327 326 326 326 326 325 325 323 321 321 321 320 319 318 317 317 316 315 314 312 309
323 318 316 314 315 318 324 324 327 328 329 328 327 327 327 326 324 323 321 319 318 318 319 319 317 316 317 317 317 316 316 315
325 321 321 319 324 325 326 328 327 328 328 327 327 326 326 324 321 318 318 317 317 317 317 317 316 316 317 317 317 317 317 316
328 326 324 323 325 326 327 327 328 329 327 326 325 325 323 321 318 318 318 318 318 318 318 317 317 317 318 317 317 317 317 316
329 328 326 326 325 327 327 327 329 329 328 326 324 323 322 319 318 318 318 317 317 316 315 315 315 314 316 317 316 315 316 317
329 329 327 327 327 327 327 327 327 329 327 325 320 322 320 319 318 318 315 313 312 312 311 312 314 313 313 312 311 310 310 312
329 329 327 326 327 327 326 326 324 326 326 322 320 320 320 319 316 312 311 311 311 311 310 310 310 309 308 308 307 308 310 310
328 327 327 327 327 326 324 322 323 323 321 319 320 319 317 313 312 312 311 311 310 309 308 307 306 305 305 303 302 302 302 302
327 326 325 327 325 323 320 318 318 318 318 316 314 314 313 312 311 311 310 309 308 306 305 304 304 304 303 302 301 300 301 302
325 326 325 325 324 320 316 316 314 314 313 312 312 312 312 311 310 308 307 306 305 304 303 303 302 303 302 302 301 300 301 305
326 326 324 320 316 315 314 313 313 312 312 312 312 309 308 307 306 304 303 302 302 301 301 301 301 302 303 302 302 302 302 302
319 322 318 316 318 318 314 313 312 313 312 310 308 307 306 304 303 302 302 301 300 301 302 302 302 302 303 302 300 302 301 302
314 314 314 313 313 313 313 313 313 313 310 308 305 303 303 303 302 301 300 300 300 300 300 300 300 300 301 302 300 299 298 300
313 313 313 313 313 313 313 313 313 311 308 303 303 302 301 301 300 300 300 299 299 298 298 298 299 299 299 300 299 299 299 298
313 313 313 313 312 312 312 311 308 307 304 303 302 301 301 303 304 301 299 297 296 295 295 296 296 296 296 296 296 296 296 296
312 313 312 312 312 311 310 307 305 304 303 304 304 304 305 303 301 297 295 293 292 293 293 293 293 292 293 294 294 294 294 294
312 312 310 308 307 306 306 306 306 306 305 304 304 303 303 301 297 294 293 292 292 292 292 291 291 291 291 292 292 292 292 293
309 309 308 308 308 306 304 304 303 303 303 302 302 302 301 299 295 293 292 292 291 291 291 290 289 290 290 291 291 291 291 291

GFSFLT2_925_thetae_018.txt.gz
Theta_e
336 335 333 333 331 327 323 319 317 316 321 321 319 321 323 323 321 321 320 319 318 318 317 317 316 316 315 315 313 310 309 310
336 334 332 330 326 322 319 317 317 318 324 324 323 323 324 324 323 322 321 321 319 318 318 317 316 316 316 316 316 315 315 313
331 328 326 323 321 319 317 317 318 322 325 325 325 325 325 325 324 322 320 319 319 319 319 318 316 316 317 317 317 316 316 315
325 323 320 318 317 316 317 318 323 327 327 327 326 327 326 325 323 320 319 317 317 317 318 317 316 316 317 317 317 317 317 317
321 317 315 315 315 318 320 325 327 327 328 327 327 326 326 324 320 318 317 317 318 317 317 317 316 315 315 316 316 316 317 317
323 319 317 316 319 323 326 326 326 327 327 327 325 325 323 320 317 318 318 318 317 317 316 314 313 313 314 314 313 314 315 316
324 322 321 320 323 325 326 327 327 328 327 327 324 323 321 319 318 318 317 315 313 312 312 311 311 311 312 311 310 309 309 310
326 325 322 322 323 325 326 327 328 328 329 327 324 322 319 319 318 315 312 311 311 310 310 310 309 308 308 306 305 304 305 305
327 327 327 324 326 325 325 326 325 327 328 324 320 321 319 318 313 311 311 311 310 309 308 307 306 305 304 303 302 302 301 300
328 328 326 326 326 325 326 325 322 323 322 319 319 317 313 312 312 311 310 309 308 306 305 304 303 303 302 302 301 300 299 300
327 326 326 325 324 326 322 320 317 315 314 313 312 313 312 312 311 310 308 306 305 304 302 301 300 300 300 299 299 298 298 301
326 325 325 325 325 321 315 314 313 314 314 312 312 314 311 310 307 305 304 302 301 301 300 300 300 302 300 301 299 298 302 301
325 326 325 322 313 313 314 315 315 313 312 311 311 311 308 305 304 302 301 301 300 300 299 299 299 300 301 300 298 301 299 299
325 324 315 315 315 318 318 313 312 312 310 308 306 305 304 303 302 301 301 302 303 301 299 299 300 300 300 300 298 299 300 300
322 319 316 316 315 313 312 312 312 312 307 305 303 303 302 302 302 304 305 301 300 298 297 297 298 298 298 300 298 297 297 298
312 312 312 312 312 312 312 312 311 308 305 303 302 302 303 304 305 304 301 299 298 296 295 294 295 296 295 297 295 296 296 296
312 312 312 312 312 312 311 310 307 305 304 304 304 304 303 303 303 302 299 297 294 293 292 292 292 292 292 293 294 294 293 295
313 313 312 311 310 308 307 305 305 304 305 304 303 303 302 302 301 297 294 293 292 291 291 290 291 290 291 291 293 293 293 292
311 310 308 307 307 306 304 302 302 302 303 303 302 302 301 301 299 295 293 292 291 291 290 290 289 289 290 290 290 291 291 292
308 308 308 306 304 303 303 303 303 303 303 302 302 301 301 300 297 294 294 293 292 292 291 290 289 289 289 289 290 290 290 288

GFSFLT2_925_thetae_021.txt.gz
Theta_e
337 337 335 331 330 330 324 319 317 317 317 316 320 322 321 320 321 320 319 318 318 317 316 315 315 316 316 315 316 315 315 314
336 334 333 332 332 328 322 318 317 321 321 320 322 323 324 322 321 320 320 318 317 317 316 316 315 315 316 316 316 316 316 315
338 334 333 332 329 325 320 317 318 323 323 323 324 324 324 324 322 320 318 318 317 317 317 316 316 315 315 316 316 315 315 316
337 334 332 327 323 320 319 319 320 324 325 325 325 325 325 324 322 319 318 317 317 317 317 317 316 314 313 313 314 315 316 316
332 329 325 322 321 319 319 319 324 326 327 327 326 326 326 325 320 317 317 317 317 317 317 315 313 312 312 312 313 314 314 314
326 323 321 320 319 319 320 324 326 327 327 327 327 326 324 321 317 317 317 316 315 314 313 311 311 310 310 310 310 310 311 311
323 321 320 319 320 322 324 326 326 327 328 327 325 323 320 318 318 317 315 312 311 311 310 310 309 308 308 307 305 304 303 305
324 322 321 321 323 324 325 325 326 325 327 327 325 322 319 318 316 312 311 311 311 310 309 308 307 306 305 304 303 304 302 301
325 325 323 323 325 325 325 319 319 320 324 323 321 320 318 314 313 312 312 312 310 308 307 306 305 305 305 304 303 303 302 299
326 326 325 325 325 325 325 321 320 321 321 320 319 316 314 313 312 311 309 307 305 305 304 304 304 303 303 303 303 302 302 303
325 325 325 322 322 320 323 322 318 316 315 314 314 313 312 312 311 308 305 304 303 302 302 301 302 302 302 302 302 300 301 303
326 324 324 324 323 324 319 315 313 312 314 312 311 311 309 308 306 304 303 302 301 302 302 302 302 302 300 301 300 299 302 303
325 326 325 325 321 317 313 312 313 313 310 310 309 307 305 305 303 302 302 304 303 301 301 301 300 300 298 298 298 301 302 301
325 325 324 320 314 314 315 314 312 310 308 308 306 305 304 303 303 304 304 302 300 299 298 299 299 299 297 297 299 298 300 299
323 317 314 313 314 315 313 311 311 309 306 305 304 304 304 303 302 303 301 299 300 298 298 297 296 296 296 297 298 298 296 295
316 314 314 312 311 311 311 311 311 307 306 305 304 304 303 302 302 302 300 298 296 296 295 294 294 293 293 295 294 295 295 295
311 311 311 311 311 310 309 307 306 305 304 304 303 302 301 301 301 301 299 296 293 291 292 293 293 292 292 292 292 292 292 294
311 310 308 308 308 307 304 301 302 303 303 303 302 302 301 301 301 300 297 293 292 292 290 290 292 292 291 291 291 291 291 291
308 308 307 307 304 303 302 302 302 303 303 303 303 303 302 301 300 299 294 294 295 292 293 293 292 291 291 291 291 291 291 290
308 307 306 304 303 302 302 303 303 303 302 301 298 299 300 299 299 298 294 297 294 293 294 294 293 292 291 291 290 290 291 290

GFSFLT2_925_thetae_024.txt.gz
Theta_e
338 337 334 334 333 330 324 319 318 317 314 318 319 319 320 320 319 319 319 318 317 316 316 315 315 316 316 315 315 315 317 316
339 338 337 336 335 329 322 320 319 319 317 320 322 322 321 321 321 321 320 319 318 317 316 316 315 314 314 313 314 317 317 317
338 336 336 335 333 331 323 319 320 322 321 321 324 327 327 326 321 320 318 318 317 317 316 316 316 316 315 314 316 316 317 316
335 337 335 334 330 329 326 324 326 329 329 328 329 329 328 326 323 318 317 317 317 317 317 316 317 317 316 316 315 316 315 315
334 336 333 329 327 325 324 325 329 330 330 330 331 330 330 328 324 321 321 319 320 320 319 317 317 316 315 315 314 313 313 313
332 330 329 327 324 323 325 328 330 330 331 332 330 329 329 328 321 321 321 320 320 318 317 316 315 314 313 312 311 311 310 310
328 327 325 325 325 327 329 329 329 330 330 329 328 327 326 323 322 320 319 318 317 316 316 315 313 312 311 310 309 309 308 308
327 326 325 326 327 328 328 325 320 321 321 322 325 323 324 322 320 318 317 316 316 315 314 312 311 311 310 309 309 308 308 307
329 327 326 327 328 326 321 320 319 320 320 320 322 322 320 319 317 317 316 314 313 312 311 310 309 309 308 308 307 308 307 307
329 327 326 328 327 322 319 319 321 321 321 321 320 316 314 316 315 314 312 310 310 309 309 308 308 308 307 307 306 307 306 306
329 328 327 322 321 322 321 321 322 318 319 316 312 312 311 310 311 310 309 308 308 307 308 308 308 307 307 305 304 304 303 301
329 328 324 324 321 318 321 318 315 314 313 312 311 311 311 310 309 308 307 308 308 308 307 307 305 305 303 301 301 300 300 302
329 326 327 325 324 322 318 317 315 312 312 310 310 309 308 308 307 308 308 307 306 305 304 303 302 302 302 300 300 300 302 303
328 328 328 326 322 319 318 318 316 312 310 309 308 308 307 307 306 306 305 303 304 304 303 302 301 300 300 299 301 300 299 301
329 328 326 319 319 319 318 316 313 312 311 310 308 307 306 305 304 303 302 301 301 302 301 300 299 298 297 297 300 300 297 296
323 320 318 318 316 315 316 316 316 312 310 308 307 305 304 303 303 303 302 301 301 300 298 298 297 297 296 296 295 295 297 297
318 316 315 315 315 314 313 312 310 308 307 306 305 304 304 304 303 303 303 302 300 298 297 297 296 296 295 294 294 294 293 294
315 314 313 312 311 310 309 307 305 304 304 304 303 302 303 303 303 302 302 301 299 298 298 297 296 294 293 293 293 293 293 292
313 313 312 310 308 305 304 304 304 303 303 302 302 300 299 299 299 298 299 300 298 298 297 297 296 294 293 293 292 292 291 291
313 312 309 307 305 305 305 303 303 302 301 299 298 298 296 296 296 297 299 299 298 297 297 296 295 294 293 293 292 291 291 290

GFSFLT2_925_thetae_027.txt.gz
Theta_e
336 335 334 333 331 329 323 320 318 315 313 316 318 319 318 318 318 318 318 317 317 316 315 315 314 313 312 313 317 317 319 319
337 336 336 336 334 326 321 319 317 315 319 320 320 320 320 320 322 319 319 318 318 317 316 315 315 316 316 316 317 317 317 318
336 334 335 335 333 324 321 318 319 319 321 323 326 327 327 327 323 319 318 317 317 317 316 315 317 318 317 316 317 317 316 316
335 333 333 332 330 327 324 324 327 328 328 328 329 329 329 326 322 317 316 316 317 317 317 318 319 318 318 317 316 316 315 315
335 335 333 329 327 324 323 326 328 330 331 331 330 329 329 328 326 323 323 320 323 321 321 319 319 318 317 316 315 314 314 313
333 331 329 327 324 323 325 328 329 331 332 332 331 329 330 327 324 322 322 321 321 320 319 319 318 316 315 314 313 312 312 312
329 328 326 325 324 326 329 329 330 331 331 331 329 328 327 325 324 322 321 320 320 320 319 318 316 315 314 313 312 312 311 311
327 325 324 326 328 329 329 328 326 326 326 326 322 321 323 324 322 320 320 320 320 318 317 314 313 312 312 311 311 310 310 310
328 327 329 330 329 327 325 324 321 323 323 321 322 322 321 320 319 319 319 315 313 313 312 311 312 311 311 310 310 309 308 308
329 328 330 330 327 320 319 319 320 321 322 321 319 319 319 317 318 316 312 312 312 312 311 311 311 311 310 310 308 305 304 305
330 329 330 327 323 322 319 321 321 322 320 318 316 316 314 314 314 313 312 312 311 311 311 311 310 309 307 305 304 302 303 302
331 329 327 324 324 321 322 321 320 317 316 315 315 315 314 314 313 312 312 311 311 311 310 308 306 305 303 303 303 302 301 302
331 329 327 327 326 324 323 321 319 318 316 315 314 313 312 312 312 311 310 309 308 308 306 304 303 302 302 302 301 300 301 301
331 329 329 328 327 325 323 321 318 316 314 314 313 312 311 310 310 309 307 306 304 303 304 303 302 301 300 300 301 299 300 300
330 330 330 327 323 321 321 320 317 315 314 314 312 310 309 308 307 306 304 304 303 302 302 302 301 300 300 299 300 299 298 297
330 328 325 322 320 319 318 318 317 316 315 312 311 309 307 305 304 304 304 303 303 302 301 300 300 299 299 298 298 297 297 297
326 323 321 320 318 318 318 317 315 312 310 308 306 306 305 305 304 304 304 303 302 301 300 300 300 299 298 297 295 295 295 295
321 319 318 317 317 316 314 312 308 307 306 305 305 304 303 302 301 301 300 300 301 300 300 300 299 298 297 295 295 294 294 294
318 317 316 315 313 310 308 307 306 305 305 304 302 301 300 299 298 298 298 298 299 300 299 299 298 297 296 296 295 294 294 293
316 316 315 312 309 307 306 304 305 304 303 301 300 299 298 298 297 297 297 298 298 299 299 298 297 297 297 296 295 294 293 293

GFSFLT2_925_thetae_030.txt.gz
Theta_e
333 333 333 333 328 323 319 317 314 309 314 318 317 316 316 316 316 316 316 316 316 316 315 314 316 317 316 317 317 317 318 319
331 333 334 331 326 321 319 316 313 317 318 319 319 318 318 321 324 317 317 317 316 316 315 314 317 317 317 317 317 316 316 317
333 331 332 327 323 319 317 316 315 321 321 323 325 327 325 328 319 317 316 316 316 316 316 317 319 319 318 317 316 315 315 315
330 333 334 329 323 321 318 319 324 324 323 328 329 329 326 325 320 316 317 318 320 320 321 320 319 318 318 316 315 314 313 313
334 332 331 328 326 324 325 328 329 329 329 329 329 329 330 329 328 323 323 322 324 321 321 320 319 318 316 315 314 313 312 312
333 331 328 326 324 323 324 330 329 329 328 331 328 329 329 325 324 323 322 321 321 320 320 319 317 316 315 314 313 312 311 311
331 328 327 323 324 327 330 329 327 329 331 327 329 328 326 326 324 323 321 320 320 319 318 317 315 314 312 311 311 311 310 310
328 327 324 326 329 329 329 328 329 327 325 323 324 323 322 324 322 319 319 320 319 316 314 312 311 312 312 311 311 310 308 306
326 325 326 329 328 327 325 320 320 322 322 321 321 323 322 320 319 319 319 316 312 312 312 311 312 312 311 311 309 308 305 303
326 328 330 328 327 324 321 320 324 323 322 321 322 321 320 318 318 318 315 313 312 312 312 312 311 311 309 307 305 304 303 303
329 330 330 328 320 320 321 319 320 320 321 318 316 316 315 315 315 314 312 312 312 312 311 310 308 306 304 303 303 303 303 301
330 331 330 326 322 322 322 320 320 320 318 316 316 316 315 314 313 312 312 312 310 309 308 307 305 303 303 303 302 301 300 301
330 330 328 325 325 326 323 321 319 318 317 316 315 314 313 312 312 311 310 308 307 304 303 304 304 303 302 301 301 300 299 300
330 329 327 328 328 326 324 321 320 318 316 315 314 313 312 311 310 308 307 305 304 304 303 303 303 302 301 301 300 299 300 298
330 329 328 328 328 325 323 321 317 316 315 314 312 311 310 308 306 305 305 305 304 304 303 302 301 300 300 300 299 298 297 297
330 330 330 329 327 323 321 320 317 316 316 313 311 310 308 306 306 305 305 305 304 303 303 302 300 301 300 299 298 297 296 295
331 331 327 324 321 321 320 317 316 313 311 309 307 307 306 305 304 302 301 300 300 301 301 301 300 300 299 298 298 296 296 295
329 327 322 321 319 319 318 315 312 309 307 307 306 305 303 301 300 299 298 298 299 299 300 301 300 299 298 298 297 296 295 295
324 321 319 318 318 315 311 308 307 307 307 305 303 302 301 299 299 298 297 297 298 299 300 300 299 298 298 297 297 296 295 295
321 319 318 316 313 310 308 307 306 305 305 302 302 301 299 298 297 297 297 296 296 297 299 299 299 298 297 297 297 296 295 294

GFSFLT2_925_thetae_033.txt.gz
Theta_e
333 331 332 327 322 318 314 311 309 312 317 314 314 314 314 314 314 315 315 315 314 314 314 317 317 317 317 317 316 314 319 317
329 326 331 325 320 316 314 311 311 317 316 316 315 315 316 317 315 314 314 315 315 314 315 316 319 318 317 315 316 314 314 316
328 330 329 323 319 318 313 311 319 318 318 320 321 323 325 320 314 314 314 315 316 318 319 319 319 318 316 316 315 314 312 312
328 328 327 322 318 315 313 319 320 321 327 327 327 327 327 323 317 316 321 319 321 321 320 319 318 317 315 314 314 313 312 311
327 329 324 318 316 317 319 323 323 324 328 330 330 328 326 324 325 321 321 321 322 321 320 319 317 315 314 313 312 311 311 310
329 331 325 322 317 324 328 327 328 329 331 330 328 329 326 325 324 324 320 320 320 319 318 318 317 314 312 311 311 311 310 309
332 330 325 322 323 325 327 330 330 329 330 330 328 328 326 325 322 321 320 320 320 318 316 313 312 312 312 311 310 310 308 306
329 329 324 325 327 329 329 328 329 329 325 321 322 325 321 323 322 320 319 318 316 314 312 311 312 311 311 311 309 308 306 305
328 325 325 329 329 328 328 328 327 324 319 320 322 323 322 321 319 319 318 314 313 312 312 312 312 311 309 308 306 304 303 303
326 325 329 329 328 327 324 321 319 320 321 321 322 321 320 319 318 317 313 312 312 312 312 311 310 308 305 303 302 303 302 301
324 326 329 328 326 324 320 321 320 320 320 320 320 318 317 316 315 312 312 312 311 310 309 307 306 304 303 302 302 301 300 299
328 330 329 327 324 320 321 321 320 320 318 316 316 315 315 314 312 312 312 311 309 307 304 304 303 303 302 301 300 299 299 298
331 330 327 322 321 323 323 320 319 317 316 316 315 314 313 313 311 309 308 307 304 304 303 302 303 302 301 299 300 300 299 298
331 330 328 323 323 325 324 320 318 317 316 315 313 312 312 311 311 309 306 304 304 304 303 303 302 301 300 300 297 298 298 297
330 330 328 327 324 326 323 320 318 316 315 313 312 311 310 308 305 305 305 305 304 303 303 302 301 301 300 299 296 296 296 296
330 328 327 326 326 327 323 319 315 315 314 313 312 311 308 306 306 305 305 303 301 300 301 301 301 300 300 299 298 297 294 293
329 329 328 327 327 325 321 317 316 316 314 312 310 308 307 305 304 302 301 299 298 298 298 299 302 300 299 298 298 297 297 293
330 329 329 328 327 324 320 316 312 311 308 307 307 304 302 301 300 299 298 297 297 297 298 299 300 300 299 298 298 297 295 294
330 330 328 322 319 319 316 314 311 308 307 306 304 301 300 299 299 298 297 297 296 296 296 297 299 299 299 298 297 297 297 295
329 327 320 318 317 314 310 308 307 307 305 303 302 301 300 298 298 297 297 296 296 296 296 296 298 299 298 297 297 296 296 295

GFSFLT2_925_thetae_039.txt.gz
Theta_e
332 330 322 316 315 311 314 317 316 316 314 313 313 313 313 313 313 313 313 315 319 319 318 317 317 317 316 315 313 312 312 311
323 320 319 317 316 318 313 315 315 314 313 313 313 313 314 314 314 314 314 316 317 319 318 318 317 315 314 314 313 312 311 310
323 321 319 319 316 311 311 316 314 313 314 313 313 314 314 314 314 315 316 317 318 319 318 317 315 314 313 313 312 311 310 310
324 322 322 321 318 312 315 318 315 314 314 315 317 316 315 315 315 316 317 318 318 319 318 316 314 313 311 311 310 310 309 308
324 322 323 320 319 313 314 318 316 316 318 322 323 321 317 316 317 318 320 320 320 319 316 314 312 311 311 310 309 307 306 305
320 323 326 323 319 313 316 319 318 320 322 324 326 326 323 319 319 321 321 321 318 315 314 312 311 311 310 309 307 306 305 304
321 327 328 324 320 314 318 319 322 326 329 329 328 326 326 325 321 322 320 317 316 313 312 311 311 310 309 308 306 304 303 302
326 329 327 323 320 316 320 321 328 330 329 329 327 325 323 324 320 318 316 315 313 312 311 311 310 309 307 304 302 302 301 301
326 328 328 323 318 317 321 324 330 329 328 327 326 324 322 320 318 316 314 313 312 311 311 310 310 307 303 301 301 300 300 299
327 328 326 322 319 320 325 329 329 327 327 326 325 323 321 319 317 314 312 312 311 311 310 308 305 302 301 301 301 299 298 297
328 329 328 325 322 324 328 329 326 319 320 320 321 322 319 317 315 313 312 311 310 309 307 304 302 302 302 301 300 299 297 296
329 330 329 325 325 327 326 326 323 319 319 321 321 319 317 315 313 311 311 310 310 307 303 302 302 302 301 300 299 298 297 297
330 329 327 326 326 324 324 322 320 319 320 320 319 317 314 312 312 311 311 310 306 303 303 301 301 300 300 300 299 297 297 297
328 327 326 327 327 325 323 320 319 319 318 317 315 315 313 312 311 310 309 305 304 303 302 301 301 300 300 297 294 297 297 297
327 326 327 327 326 322 320 319 319 316 315 314 313 314 313 312 311 308 304 304 304 302 301 301 300 300 300 299 295 294 295 297
326 326 327 326 325 322 321 320 317 316 316 315 313 312 311 309 307 304 305 304 302 299 298 298 298 299 299 299 298 297 294 293
326 325 325 326 325 322 322 321 318 317 316 314 312 310 309 307 305 305 303 299 297 296 296 296 297 299 300 299 298 297 296 293
326 325 325 325 325 322 324 321 319 316 314 312 310 308 307 305 304 301 299 297 296 295 295 295 296 298 298 298 297 297 296 295
326 326 326 326 325 322 324 322 320 318 315 312 310 308 304 301 299 298 298 301 296 295 295 295 295 296 297 297 296 296 296 296
326 327 327 327 326 326 325 324 320 317 316 313 310 307 302 299 299 299 301 297 296 295 295 295 295 295 295 294 293 292 292 294

GFSFLT2_925_thetae_042.txt.gz
Theta_e
333 330 324 322 318 316 320 323 322 319 315 315 314 313 313 315 317 317 317 317 317 317 317 317 316 315 314 313 312 311 310 310
326 321 314 317 319 322 324 322 320 313 314 313 313 313 313 313 313 314 317 318 318 318 317 316 315 314 313 313 312 311 310 310
319 319 321 320 320 321 324 322 315 314 313 313 313 314 314 314 315 315 316 318 318 317 316 315 314 313 312 311 311 310 310 309
315 317 317 315 315 313 315 318 314 313 313 314 314 314 315 315 315 316 317 318 318 317 315 313 312 311 311 310 310 308 307 306
319 321 322 320 316 316 318 315 314 314 314 314 315 315 315 315 316 317 318 318 318 316 313 312 312 311 309 308 307 307 306 305
322 322 321 326 320 313 317 315 316 315 316 321 320 318 316 316 317 318 320 319 316 314 314 312 311 310 309 307 306 305 304 303
322 321 324 322 320 313 318 316 317 318 322 324 325 324 321 318 320 320 319 316 316 314 312 311 310 309 308 306 304 302 301 301
321 323 326 323 321 314 317 318 319 323 325 327 327 325 325 324 321 318 316 315 313 312 311 310 309 308 305 301 301 300 300 300
321 322 328 325 322 316 318 319 324 328 328 328 327 326 323 323 319 316 314 314 313 311 310 310 308 304 301 300 300 299 299 299
321 326 328 326 322 317 319 321 328 328 327 326 326 324 321 319 317 315 314 313 312 311 310 307 303 301 301 300 300 299 298 298
325 326 328 326 323 318 319 323 328 327 326 326 325 322 320 318 316 315 313 312 310 309 306 303 301 300 300 300 300 298 296 296
325 327 328 326 323 320 322 327 326 323 322 321 322 322 320 317 316 314 312 310 308 305 303 302 300 300 300 300 299 297 296 296
325 327 328 327 324 323 326 327 324 320 320 320 320 320 318 316 314 311 309 309 306 303 302 301 300 300 300 299 298 296 297 296
326 327 328 329 325 324 325 325 323 320 319 319 319 318 316 313 312 310 309 307 304 303 302 301 300 300 299 297 294 296 297 297
327 328 329 328 325 325 324 322 320 319 318 318 317 315 313 312 311 309 306 304 304 303 301 300 299 299 299 298 295 295 294 296
328 328 328 327 325 325 323 322 319 318 318 317 315 314 312 310 308 307 304 304 301 298 297 297 296 297 298 299 298 297 295 294
327 327 327 326 325 325 323 322 320 319 318 315 313 313 310 309 307 305 304 300 297 297 295 295 295 297 299 299 298 297 296 293
326 326 326 325 325 324 323 321 319 318 315 314 312 310 309 307 305 303 299 298 298 298 295 294 294 296 297 298 298 297 296 295
325 325 325 325 325 324 324 322 320 319 316 315 312 309 307 305 303 300 299 302 298 299 296 294 294 294 295 297 297 296 295 294
325 325 325 324 324 324 324 323 322 319 316 315 312 309 307 303 300 299 301 303 303 298 296 295 295 294 295 295 294 293 292 292

GFSFLT2_925_thetae_045.txt.gz
Theta_e
331 329 324 321 325 319 320 315 322 322 318 318 318 317 316 316 316 316 316 316 316 315 316 315 314 313 312 312 311 310 312 313
331 323 318 317 324 324 319 320 321 321 316 316 316 316 316 316 317 317 317 317 317 316 315 314 314 313 312 312 311 310 311 311
320 318 315 318 323 327 323 321 321 316 315 313 313 314 315 317 317 318 318 318 316 316 315 314 314 312 311 311 310 309 309 310
316 315 314 315 322 322 321 315 317 314 313 313 313 314 315 315 316 317 318 317 316 315 314 313 312 311 310 310 309 308 307 308
319 316 316 316 316 314 314 320 315 313 313 313 314 315 315 316 316 317 318 317 315 314 313 312 311 310 309 309 308 307 306 305
315 313 314 319 319 318 320 316 314 314 314 315 315 315 315 315 317 318 318 317 315 313 312 311 310 309 308 307 306 303 302 302
319 322 321 319 320 321 319 316 315 315 315 315 316 316 316 317 317 319 319 316 315 313 311 311 310 308 307 305 302 300 300 299
321 322 320 321 318 316 318 316 316 317 320 323 324 322 318 317 320 319 317 315 313 312 312 310 308 307 305 301 300 299 299 299
322 323 324 324 322 315 319 317 318 320 322 324 325 325 325 324 320 317 315 313 313 312 311 309 308 303 301 300 299 299 299 298
322 324 325 326 323 316 317 318 320 325 327 327 326 325 324 323 319 316 314 313 312 311 310 307 303 301 300 300 299 299 298 298
323 324 326 327 323 319 316 319 323 327 327 326 326 324 322 320 317 315 313 312 311 309 307 303 302 302 301 300 299 298 298 298
323 322 326 328 323 320 317 320 324 327 327 325 324 323 320 318 315 315 313 312 309 307 304 301 301 301 300 300 299 297 297 297
324 324 326 327 325 321 321 323 325 327 326 325 324 323 321 317 316 314 312 310 308 305 302 301 301 299 300 301 299 297 297 297
324 325 326 327 325 321 321 323 325 325 322 320 320 320 319 318 316 313 310 308 305 303 302 302 300 299 301 300 300 299 298 298
325 325 326 327 326 323 322 323 325 323 320 319 319 319 318 316 313 311 308 307 304 303 302 300 300 300 299 300 300 300 299 298
324 325 325 326 327 324 322 323 323 321 320 318 318 316 315 313 311 309 307 304 304 302 298 297 298 299 299 299 299 299 300 299
325 325 325 326 327 326 323 323 323 320 319 317 316 315 313 311 310 308 306 304 302 299 296 295 295 295 298 299 299 299 298 298
327 326 326 325 326 326 323 322 321 320 318 316 314 313 312 310 309 307 304 302 299 301 301 298 295 296 297 298 298 298 297 297
326 326 326 325 324 325 324 322 321 321 319 317 315 312 311 309 307 305 302 300 301 301 303 299 295 294 294 297 298 297 296 295
326 326 326 325 324 325 323 323 322 322 320 318 316 314 312 310 306 303 300 301 302 304 298 295 295 295 295 296 297 296 295 294

GFSFLT2_925_thetae_048.txt.gz
Theta_e
330 330 330 326 324 328 328 325 326 325 324 321 320 319 317 315 315 316 317 317 316 316 315 314 313 312 311 311 309 311 313 314
329 329 324 324 323 324 327 326 326 325 320 319 319 317 316 315 315 315 315 315 315 315 314 313 312 312 311 310 311 311 312 313
324 319 315 316 318 323 326 323 322 319 319 318 318 320 320 320 320 316 316 316 315 315 314 314 313 312 311 310 311 312 311 311
319 317 314 315 320 322 327 327 322 319 317 318 321 322 322 321 320 317 316 316 316 314 314 313 315 314 311 310 311 310 309 308
317 319 319 317 319 320 327 325 321 315 320 322 323 323 321 321 321 320 318 317 315 314 314 316 314 313 312 311 310 308 307 306
314 314 316 317 318 318 316 313 312 317 322 323 323 322 322 322 322 322 320 319 318 317 316 314 313 312 311 309 308 306 304 304
317 318 318 317 317 317 316 321 321 321 322 322 321 321 321 321 322 321 320 319 318 316 314 313 312 310 309 307 305 304 304 304
314 318 317 316 317 316 321 321 321 321 320 322 324 322 322 322 322 321 320 319 317 316 314 313 312 310 308 305 304 303 304 305
320 318 318 316 318 323 323 321 319 320 322 326 326 325 323 323 321 320 319 318 316 314 313 312 311 308 306 304 303 303 303 304
323 323 322 323 323 320 321 320 322 323 326 328 329 328 327 324 321 320 318 316 315 314 313 312 310 307 305 304 303 302 302 303
324 325 325 326 325 321 322 322 324 327 329 328 328 327 324 323 321 319 317 316 315 313 313 311 308 306 305 304 303 302 302 301
325 325 327 329 326 323 320 323 324 327 328 327 327 324 322 321 320 318 317 316 314 312 311 308 307 306 303 303 304 302 301 301
325 327 328 329 327 323 320 322 324 328 328 327 326 323 321 320 319 318 316 314 314 312 309 307 306 306 306 306 305 302 301 301
325 326 327 329 328 324 321 320 323 325 326 327 325 323 321 321 319 317 315 315 312 310 308 308 307 305 306 305 308 305 302 301
326 325 327 329 328 326 323 322 325 325 325 324 322 321 320 319 317 315 313 313 312 310 309 308 308 305 303 305 307 309 305 303
326 327 327 329 330 327 324 322 324 325 326 325 322 320 318 317 315 313 312 312 311 309 308 306 305 307 304 303 302 302 305 305
327 326 327 328 329 329 327 323 323 326 327 325 322 319 317 315 313 312 310 310 310 308 305 305 306 306 303 303 302 303 302 301
330 328 328 328 328 329 329 327 325 326 326 324 322 318 316 313 312 311 310 310 309 306 305 306 304 302 300 301 302 302 301 301
332 330 329 328 328 328 329 329 328 327 325 324 323 318 314 313 311 311 310 309 307 305 304 304 303 301 301 301 300 299 299 298
333 331 330 329 329 329 329 329 327 327 326 324 321 317 316 313 310 309 309 306 303 302 302 305 300 300 300 299 299 299 299 298

GFSFLT2_925_thetae_051.txt.gz
Theta_e
334 331 328 327 328 328 328 328 328 329 326 323 323 323 326 329 328 325 320 316 316 315 313 312 312 311 310 309 312 314 316 315
329 325 327 328 329 328 328 328 329 326 324 321 320 319 319 320 320 319 316 316 316 314 313 313 312 311 310 312 313 313 314 314
328 326 324 323 324 324 323 325 325 322 322 319 319 319 318 320 320 316 316 316 315 314 314 314 312 311 310 311 313 313 312 313
324 322 321 322 320 318 322 326 325 324 321 320 321 320 324 321 316 316 316 316 315 314 315 316 316 315 313 313 312 311 310 309
321 321 319 319 318 318 318 324 324 321 320 322 321 323 323 321 317 317 316 315 316 315 316 318 318 317 315 313 311 309 308 308
316 316 316 315 315 314 317 323 322 321 322 323 324 323 322 322 322 322 320 320 318 319 320 318 317 315 313 312 309 307 307 307
316 316 320 318 320 319 320 320 317 314 323 324 324 322 323 323 324 323 322 322 321 321 319 318 316 314 312 310 308 307 306 307
316 317 316 317 317 315 318 317 318 321 323 323 322 323 323 323 324 323 323 322 322 320 319 318 316 314 311 308 307 306 306 307
316 316 316 316 313 313 314 315 321 323 321 322 324 323 324 323 324 324 323 323 321 320 319 317 316 312 309 307 306 306 306 306
318 317 317 315 316 316 318 322 321 320 320 324 325 325 325 325 324 324 323 322 320 319 318 317 316 312 309 308 307 306 305 306
319 318 317 317 320 321 322 320 319 318 321 325 327 328 329 327 326 324 323 321 320 319 318 317 314 311 309 308 308 307 305 303
323 322 320 323 323 321 321 322 321 321 325 327 328 329 329 328 326 324 323 321 320 319 318 316 313 311 307 307 309 307 305 304
325 325 325 325 325 323 319 322 323 323 325 328 328 328 327 326 325 324 322 321 320 318 317 314 311 310 310 310 310 308 306 305
326 325 326 327 326 324 321 319 321 322 324 327 327 327 326 325 324 323 322 321 319 318 316 313 312 311 311 311 314 311 307 305
327 327 328 328 328 326 323 321 321 323 324 327 327 327 327 325 324 323 322 319 318 317 315 314 313 310 309 311 313 313 310 307
327 327 327 327 327 327 325 323 321 322 324 325 327 326 325 323 323 322 320 318 317 316 315 314 312 311 309 309 308 307 308 309
327 327 326 326 328 328 328 325 323 324 325 326 327 326 324 323 322 320 318 317 315 314 313 313 311 310 311 308 305 306 306 306
328 327 327 327 328 329 329 327 325 323 326 328 327 326 325 323 320 318 317 315 314 314 312 311 310 310 307 304 306 307 307 306
331 329 327 327 328 329 329 329 328 326 325 328 327 326 324 322 319 316 315 315 313 313 311 310 308 306 305 305 304 304 302 302
332 331 330 328 329 330 330 330 330 330 329 328 327 327 325 322 317 315 314 313 312 311 309 307 305 305 303 302 301 300 301 301

GFSFLT2_925_thetae_054.txt.gz
Theta_e
336 334 333 332 330 329 330 328 329 329 329 328 329 331 331 330 331 327 316 316 315 312 312 311 310 309 312 314 314 316 315 316
332 329 328 328 326 326 328 328 329 329 326 328 331 332 331 330 328 319 316 316 314 313 313 313 311 311 313 313 314 314 313 312
329 327 325 323 321 320 324 326 329 326 324 324 327 329 328 325 320 316 316 315 314 314 315 314 313 311 312 313 313 311 312 311
327 325 323 321 319 315 318 324 327 323 320 318 319 323 323 322 316 316 316 314 315 316 316 316 315 315 313 313 311 310 310 309
325 324 322 320 319 320 320 319 323 320 321 321 321 324 320 316 316 316 315 315 315 316 316 318 318 317 314 312 310 308 308 308
321 321 323 322 318 313 313 316 320 321 322 321 322 323 318 316 316 316 316 317 316 317 318 319 317 316 313 311 308 308 307 308
320 320 320 320 320 320 318 318 320 320 322 321 324 322 321 319 321 320 320 320 319 319 320 318 316 314 312 310 308 307 307 311
318 316 316 315 315 315 316 319 321 321 322 323 324 321 323 322 323 323 322 322 322 321 320 318 317 315 311 308 307 307 307 308
318 317 318 317 314 317 318 318 317 318 317 323 321 323 323 324 324 323 323 322 322 321 319 319 317 314 310 308 307 307 306 307
318 318 317 318 317 316 315 318 316 319 319 319 322 323 323 323 323 325 324 323 322 321 319 318 317 314 310 308 307 306 306 306
318 317 315 315 315 313 314 315 316 320 320 322 322 322 324 323 325 324 324 323 322 320 319 318 317 314 311 309 308 307 306 306
318 316 316 314 314 316 318 315 318 318 316 320 324 325 326 326 326 325 324 323 321 320 319 319 317 314 311 309 310 309 307 305
319 319 318 318 320 320 320 323 323 320 320 322 326 325 326 325 326 326 324 323 321 320 319 318 315 312 311 309 310 310 308 306
321 320 317 318 322 323 321 321 323 321 321 326 326 326 327 328 326 325 324 323 322 320 318 317 314 311 311 312 311 311 308 307
325 324 322 322 324 325 324 321 322 323 323 325 324 327 326 327 326 325 324 323 322 320 318 316 314 313 311 311 312 312 308 307
327 327 327 326 326 327 326 323 321 322 322 325 326 327 327 327 326 325 323 322 321 320 318 316 315 313 311 310 309 308 306 308
327 327 327 326 327 328 328 325 322 321 323 324 327 328 327 327 325 324 323 322 320 319 317 316 315 314 312 310 309 307 306 307
328 328 328 328 330 329 329 327 325 324 324 325 327 328 327 326 325 323 323 321 319 318 316 315 314 312 311 309 307 307 307 308
329 329 329 328 328 329 327 328 329 326 325 326 328 328 327 326 325 324 321 320 318 317 315 314 312 311 308 308 306 304 302 302
329 329 329 329 328 329 330 329 329 329 327 326 328 328 327 326 325 323 320 319 317 315 314 314 311 309 309 305 303 302 302 301

GFSFLT2_925_thetae_057.txt.gz
Theta_e
337 337 337 335 333 329 326 328 330 329 329 331 332 332 331 331 319 316 315 313 311 311 309 308 312 314 314 314 318 318 317 314
336 335 333 331 328 327 326 328 330 328 329 329 330 331 331 330 318 316 314 312 313 313 311 310 313 313 314 312 314 314 313 307
333 331 328 325 323 322 322 328 329 328 330 330 330 330 329 330 317 316 314 313 314 314 313 311 312 313 313 311 311 312 310 306
329 328 326 324 321 318 324 325 327 327 329 328 328 327 326 321 316 315 314 315 316 315 314 314 314 313 312 311 309 310 308 306
326 325 323 322 321 321 318 319 324 323 325 325 324 322 322 317 316 315 314 315 316 316 316 318 317 313 312 310 308 308 308 306
324 323 321 318 319 318 319 318 321 321 322 323 322 320 317 316 316 315 315 315 316 317 318 317 316 315 310 309 307 307 308 308
322 321 319 319 319 320 319 323 321 322 321 322 320 318 316 316 316 316 315 317 318 317 319 318 316 312 310 308 307 307 308 310
322 321 319 320 319 318 318 321 321 320 319 322 320 316 317 316 318 317 318 319 319 319 319 318 316 314 311 308 307 307 307 308
319 319 317 316 316 316 318 318 316 319 320 318 323 322 322 320 322 322 321 321 321 321 319 318 317 314 311 309 306 307 306 307
318 318 315 315 316 316 316 315 315 315 318 321 322 321 323 324 325 324 323 323 322 321 319 318 316 314 311 308 307 306 306 306
318 317 315 316 315 315 317 319 319 319 317 317 320 321 323 323 323 323 324 324 323 321 319 319 317 315 312 308 307 307 306 306
317 318 316 315 318 318 317 317 317 314 315 317 320 320 322 323 322 324 324 323 322 321 320 319 318 316 311 310 308 308 307 306
318 317 317 317 316 315 315 315 315 317 317 317 321 319 320 323 324 324 325 323 323 321 320 319 318 315 314 309 309 309 308 307
317 316 314 314 313 315 316 316 316 316 316 317 317 320 324 325 325 325 325 324 323 321 320 319 318 316 311 310 310 310 309 308
315 316 315 314 314 316 317 318 319 318 321 320 322 324 325 324 324 325 325 325 323 322 320 320 318 315 312 311 309 308 307 308
318 319 318 316 319 321 320 321 320 322 322 320 319 325 325 326 324 325 325 325 323 323 321 320 318 315 313 311 311 309 306 306
320 320 318 317 318 321 322 324 320 320 321 322 321 323 324 326 325 326 326 325 323 322 321 320 318 315 313 311 310 309 307 306
323 322 321 318 319 321 324 326 323 321 320 322 322 326 325 326 326 326 326 325 324 322 321 320 318 316 315 312 310 307 306 307
325 325 325 325 324 325 326 326 327 324 321 321 323 325 326 327 326 325 325 324 323 322 320 318 317 315 314 310 309 308 308 303
326 326 326 326 326 326 326 326 327 327 324 324 324 324 325 326 326 326 325 324 323 321 319 317 316 314 310 308 309 305 303 303

GFSFLT2_925_thetae_063.txt.gz
Theta_e
334 331 335 334 329 326 324 323 329 329 329 329 326 321 319 316 314 315 316 314 313 315 321 320 319 319 316 312 310 311 314 317
335 333 333 331 329 325 322 320 327 329 328 327 325 321 316 312 310 309 311 312 312 312 313 318 320 318 315 311 310 310 312 316
334 332 331 330 326 323 320 321 327 329 325 323 323 319 314 311 310 309 308 311 312 312 312 313 317 317 314 311 309 309 312 315
332 330 328 327 325 323 319 319 325 325 327 323 321 317 313 311 312 311 310 312 312 312 312 311 312 312 312 309 308 308 310 314
329 329 327 326 324 322 319 319 320 321 323 326 320 317 314 312 313 313 311 311 312 312 313 311 310 310 310 308 307 308 310 313
326 327 328 326 324 321 323 327 327 327 325 327 321 317 314 313 314 315 313 314 315 317 314 312 311 309 308 307 307 307 308 310
325 325 325 325 328 327 328 329 329 330 328 328 325 316 315 314 315 316 315 315 317 318 316 314 311 309 307 307 306 306 307 308
323 323 324 324 323 323 329 329 329 329 328 328 325 316 315 314 315 316 316 317 318 318 318 316 312 309 308 307 306 307 308 307
322 323 324 324 325 327 327 323 322 328 327 327 323 316 316 315 315 316 316 317 317 318 318 317 315 311 308 307 306 307 307 308
321 321 323 324 323 320 316 322 326 326 325 324 319 316 316 316 317 317 317 316 316 318 318 317 315 314 311 308 307 306 307 307
320 320 321 320 317 321 322 322 323 323 322 320 317 316 316 315 316 317 317 318 318 318 319 318 317 315 314 310 307 306 307 307
319 319 319 318 318 320 320 321 322 322 320 317 316 317 316 316 319 321 321 319 319 320 320 319 318 317 315 311 308 307 306 306
319 318 317 317 316 317 320 320 320 319 322 320 321 322 322 322 323 323 324 323 323 323 321 320 317 316 314 311 310 307 306 306
317 317 317 316 317 318 318 318 316 316 317 318 317 321 321 322 323 323 322 323 323 323 322 320 318 317 316 309 306 308 307 306
316 316 316 316 316 316 316 317 316 316 315 315 316 317 319 320 319 322 322 322 322 323 322 319 319 318 317 315 307 308 307 308
316 316 315 315 315 316 316 315 316 316 315 315 315 317 318 316 318 320 321 321 323 323 323 322 320 319 315 314 312 310 308 309
316 316 316 315 315 315 315 315 316 316 316 316 317 317 317 316 314 317 318 318 322 324 324 323 322 319 317 314 310 309 311 307
316 316 315 316 315 315 315 315 315 315 315 315 315 315 315 315 314 315 320 321 323 324 324 324 323 321 319 318 316 312 309 307
316 316 316 315 315 315 315 315 315 315 315 315 315 315 315 315 313 317 319 319 323 324 324 323 322 322 320 318 317 316 315 310
316 315 316 316 315 315 314 314 315 315 316 315 315 316 315 315 316 320 320 318 319 324 324 323 323 322 321 319 317 315 315 313

GFSFLT2_925_thetae_066.txt.gz
Theta_e
334 333 332 330 330 331 330 326 329 330 328 327 327 328 329 329 326 316 315 318 320 319 317 316 311 310 310 311 313 315 316 317
333 332 331 331 331 330 326 322 319 325 328 328 326 326 326 325 318 313 316 320 320 319 318 317 314 311 310 310 312 315 316 317
332 331 328 328 327 326 326 326 324 327 327 326 323 321 320 319 315 312 313 316 320 320 319 318 314 311 309 309 310 313 315 317
331 325 329 328 328 327 323 327 323 321 322 324 319 317 312 311 312 312 312 312 313 318 319 318 314 311 309 309 310 312 314 316
330 329 328 327 325 322 320 321 323 325 322 321 318 314 310 309 310 312 312 312 312 314 316 314 312 310 309 308 309 310 313 315
329 328 326 324 321 320 322 323 323 323 322 321 317 312 311 310 310 311 312 313 312 311 311 310 310 309 308 308 308 310 312 314
327 326 325 323 321 320 320 322 323 324 321 320 317 312 312 312 311 311 312 314 313 312 310 310 309 308 307 307 308 309 311 314
325 327 326 324 322 321 321 323 323 322 321 322 317 313 313 314 312 312 314 316 316 314 315 313 309 308 307 306 306 308 310 312
324 325 325 326 324 323 325 323 323 324 324 325 318 314 313 315 315 314 315 317 317 317 315 313 310 307 307 306 306 307 307 308
324 324 325 326 327 326 325 326 325 325 326 324 317 315 314 315 315 316 316 317 318 318 317 315 312 310 309 307 307 307 307 307
322 322 324 323 322 320 323 326 325 321 324 324 320 316 315 315 316 315 316 316 317 318 318 318 316 313 312 309 308 306 307 307
321 321 322 322 321 320 323 318 317 320 324 324 322 316 316 315 315 315 317 317 317 317 318 318 317 316 313 311 309 307 306 306
320 320 320 319 319 320 320 321 321 323 323 322 321 316 316 316 316 316 317 317 319 319 319 319 318 317 315 312 311 308 307 307
319 319 319 319 318 320 320 318 320 322 319 319 319 317 316 316 317 320 321 322 321 321 321 321 319 317 314 310 308 310 311 309
318 318 318 318 318 317 318 319 319 319 320 320 321 321 320 320 320 321 322 322 323 323 323 322 320 318 316 316 308 309 307 309
318 317 317 317 316 316 317 319 319 318 317 317 318 319 319 319 320 320 320 322 321 322 322 322 321 318 315 315 314 311 308 310
316 317 316 316 316 316 317 317 318 317 316 315 316 316 316 317 317 316 316 319 319 319 321 322 322 320 318 317 313 310 309 311
315 315 316 316 316 315 316 316 317 316 316 316 315 315 315 315 316 316 316 315 316 318 319 321 323 322 320 318 317 313 309 309
315 315 315 316 315 315 315 315 316 316 315 315 315 315 315 315 315 316 316 315 316 317 319 322 322 321 320 319 318 317 316 314
315 315 315 315 315 315 314 314 314 314 315 315 315 315 315 315 315 315 315 315 314 317 320 321 322 322 318 316 318 319 317 315

GFSFLT2_925_thetae_069.txt.gz
Theta_e
332 331 330 329 329 329 328 327 332 331 329 330 328 328 329 328 326 324 328 328 324 316 309 309 310 312 314 315 315 318 318 319
332 331 330 330 329 329 328 328 331 329 329 329 329 329 329 327 321 320 326 324 320 313 310 310 310 312 314 315 315 316 318 318
331 332 331 330 330 331 330 328 325 325 327 328 329 330 328 324 319 318 322 320 316 314 312 311 310 311 313 314 315 317 317 318
330 327 328 330 329 328 325 322 323 321 325 327 328 328 326 316 316 320 320 319 318 316 313 311 314 316 315 315 316 317 317 317
329 327 326 327 326 325 324 322 317 319 323 326 326 325 320 314 315 321 321 320 321 319 315 316 315 316 313 315 316 317 317 317
329 327 327 327 326 326 327 323 324 324 322 323 321 320 316 313 313 315 319 323 323 319 316 311 310 308 309 310 315 316 317 317
328 327 328 327 326 325 325 322 321 320 325 321 316 312 313 313 312 312 313 316 317 317 314 312 309 309 308 308 310 315 317 317
327 325 326 326 324 323 323 323 322 324 324 318 312 309 309 312 312 312 312 313 312 312 311 311 310 308 308 308 309 312 315 317
326 325 324 323 321 321 322 323 324 323 324 319 311 310 309 312 312 313 314 311 311 311 310 309 308 307 307 307 308 309 310 314
325 325 325 323 321 320 322 323 323 324 322 322 313 312 311 310 311 313 316 314 314 313 311 310 308 307 307 306 306 307 308 309
324 325 324 324 323 322 321 323 323 324 322 320 320 313 313 312 311 314 317 317 316 316 316 314 310 308 309 307 307 307 307 307
323 323 324 324 324 323 324 322 323 322 321 321 322 315 314 314 314 314 316 318 317 317 318 315 314 311 308 308 308 308 306 307
321 322 323 324 323 322 324 323 324 323 320 322 322 317 314 315 315 315 316 316 317 318 318 317 317 315 313 311 310 309 307 306
319 321 321 322 321 319 319 320 321 321 319 322 321 317 315 314 315 315 315 315 317 318 317 318 318 317 316 314 318 315 312 310
319 319 320 320 320 319 319 319 318 319 318 320 320 319 317 316 315 315 316 317 317 318 319 319 320 318 316 319 317 321 315 311
319 319 319 319 319 319 319 319 317 318 319 320 319 319 317 316 316 317 318 320 320 319 319 322 322 320 316 316 317 315 320 320
319 319 319 318 318 318 318 319 319 319 318 317 316 317 317 317 317 317 319 318 320 320 320 321 321 321 319 317 315 313 313 316
318 317 317 318 317 317 318 319 320 318 317 317 317 319 319 319 317 317 318 317 318 318 319 320 320 321 320 318 317 317 314 311
317 317 317 317 317 316 316 317 318 319 317 316 316 316 316 316 317 317 317 317 316 315 316 316 319 320 320 319 320 319 316 314
317 316 316 316 317 317 316 316 317 317 318 317 316 316 316 315 315 315 316 316 316 316 315 315 316 319 320 321 320 319 317 315

GFSFLT2_925_thetae_072.txt.gz
Theta_e
337 335 334 332 334 333 332 337 335 334 333 331 333 330 329 329 331 331 330 327 321 318 319 317 315 317 317 317 319 320 320 320
333 334 334 333 332 330 331 333 333 333 331 331 329 329 329 330 330 329 329 324 314 310 311 312 313 314 315 317 318 319 320 320
333 333 333 334 332 330 328 329 330 328 328 328 329 330 329 328 328 328 328 319 310 310 311 312 314 315 315 315 318 319 319 319
334 333 333 330 329 329 329 329 330 327 325 325 328 329 328 325 328 327 325 316 310 311 310 312 316 317 316 317 318 319 319 319
332 328 327 325 329 329 328 330 329 326 325 325 327 328 325 325 327 327 324 317 317 316 315 317 317 317 317 317 319 319 319 319
330 329 326 327 325 323 323 323 325 323 321 323 327 325 324 325 326 325 323 322 320 318 318 318 318 317 317 318 319 318 319 318
330 328 326 326 325 324 323 322 321 322 324 324 326 323 321 322 324 325 324 324 322 320 319 318 316 316 317 318 318 319 319 318
329 327 327 326 326 326 325 321 319 320 324 324 324 322 319 318 320 323 324 324 323 320 317 316 315 315 316 316 317 318 319 319
327 327 326 326 326 326 324 323 323 322 323 323 322 320 318 318 317 318 319 320 319 318 317 315 314 314 315 315 316 317 318 319
326 325 325 323 324 324 323 323 322 320 322 321 319 317 315 315 317 317 317 318 316 316 315 314 313 313 313 313 314 315 316 317
325 325 324 323 323 323 323 321 322 324 322 318 316 315 313 316 317 317 318 316 315 316 315 314 313 312 312 311 310 311 313 314
324 324 324 323 323 322 322 322 322 323 323 317 313 316 312 316 317 319 319 318 318 317 317 316 315 314 313 312 312 312 312 311
324 323 324 323 323 322 322 323 322 323 321 321 315 317 317 317 316 319 320 319 320 320 320 319 317 316 315 315 314 314 313 313
323 322 323 323 322 323 323 322 324 323 322 318 319 320 318 319 317 318 320 321 322 321 321 320 321 318 319 321 323 319 316 315
323 322 322 323 324 325 323 322 322 322 322 319 318 321 318 318 314 314 316 319 321 321 321 322 322 320 320 322 324 325 323 320
322 321 323 321 322 321 322 323 321 322 321 321 321 322 318 316 315 315 316 316 320 321 320 322 323 323 320 320 322 322 323 323
321 322 323 321 320 322 321 322 319 319 320 319 318 320 318 317 315 315 315 315 316 318 319 321 323 321 322 322 320 320 320 321
321 322 322 322 322 321 320 320 320 319 319 319 319 319 319 317 316 316 316 316 319 318 319 319 319 321 320 322 323 323 322 321
322 322 322 322 322 322 321 322 321 320 318 319 319 319 319 317 317 316 317 316 317 317 319 319 321 320 321 322 323 323 323 322
321 322 322 322 322 322 322 322 322 321 321 319 320 319 318 318 317 316 316 317 316 317 320 321 320 322 322 322 322 322 322 321

GFSFLT2_925_thetae_075.txt.gz
Theta_e
340 339 333 330 328 328 329 336 335 335 336 335 334 333 331 328 327 328 328 326 326 326 323 318 320 320 321 320 320 321 322 321
338 338 337 336 333 332 332 333 335 333 334 334 334 331 329 328 329 329 327 325 323 320 318 319 319 320 317 319 320 321 321 320
335 338 337 336 335 333 331 331 333 332 332 331 328 330 330 331 332 329 325 317 318 316 315 316 316 316 318 319 320 321 321 320
336 336 336 334 334 330 329 330 332 333 329 327 327 326 330 331 331 330 320 312 312 312 312 313 316 316 318 319 321 321 321 320
336 336 336 335 333 331 329 329 330 331 328 323 323 324 328 328 330 328 318 312 318 316 314 318 318 316 319 320 320 321 320 319
335 333 331 329 326 326 328 328 329 328 324 321 325 325 327 328 327 326 319 318 318 317 318 319 319 318 320 320 320 320 320 319
334 333 330 329 325 325 326 327 328 326 324 322 324 325 326 326 327 325 320 321 320 317 320 320 319 319 319 320 320 320 320 319
331 333 329 328 325 324 323 325 325 325 324 323 324 325 325 326 326 325 323 323 321 320 320 319 318 318 319 320 320 321 320 319
330 330 329 326 327 325 324 322 322 323 321 321 320 323 324 325 325 325 324 324 322 321 319 318 317 317 318 319 319 320 321 320
328 327 328 327 326 326 324 323 321 324 322 322 322 322 321 324 325 325 325 324 323 320 318 317 317 317 317 318 318 319 319 320
328 327 325 325 326 325 324 322 321 322 323 323 323 322 321 320 320 321 322 322 320 319 317 316 316 316 316 316 316 317 318 319
327 326 324 324 325 325 324 323 323 321 323 322 321 322 320 318 318 319 319 319 318 318 318 318 317 316 314 314 314 314 315 316
327 325 325 324 324 324 323 324 321 320 321 321 319 319 319 319 319 320 319 317 317 319 319 319 318 317 316 316 316 316 316 315
326 326 326 324 323 324 324 322 322 322 322 321 316 319 319 318 319 321 320 319 320 321 321 321 320 318 318 319 321 318 317 317
326 325 324 324 325 325 324 323 322 322 323 322 316 316 318 317 318 320 321 322 322 322 323 323 323 321 321 322 325 325 323 320
324 325 324 324 324 324 323 323 323 322 322 322 321 317 317 319 321 321 321 322 323 324 324 324 322 321 321 322 323 324 323 325
325 324 325 324 325 324 323 323 322 323 322 321 320 319 320 319 320 318 317 319 321 322 323 323 323 320 319 322 322 323 323 322
325 324 325 325 324 325 325 325 323 323 322 321 319 318 318 320 319 317 315 316 316 318 319 318 319 321 319 321 320 322 322 323
325 325 325 324 324 325 325 325 324 322 323 321 320 318 318 319 319 317 315 317 317 317 318 317 318 318 319 320 321 322 323 322
325 324 325 325 324 324 324 324 324 324 323 322 322 320 319 319 319 318 315 316 317 318 318 318 318 318 320 322 321 321 322 322

GFSFLT2_925_thetae_081.txt.gz
Theta_e
341 340 337 334 332 330 328 325 325 326 325 326 333 335 334 332 333 334 333 331 329 327 326 326 325 324 323 321 322 322 321 320
340 339 337 334 332 330 327 327 325 325 327 329 335 334 334 333 333 333 331 328 327 326 326 323 323 324 321 321 322 321 320 319
336 340 339 335 332 329 327 328 325 326 326 327 333 334 333 333 332 330 327 324 325 325 324 318 323 321 321 321 320 320 319 318
334 337 337 336 335 331 329 329 326 326 326 331 332 333 333 332 330 328 326 321 320 320 318 321 321 320 321 321 320 320 320 318
335 335 335 334 334 333 332 327 325 324 326 331 331 332 331 329 328 327 325 322 316 318 317 320 319 320 321 321 321 320 319 317
336 336 335 334 333 331 331 329 326 326 329 331 331 330 329 328 326 324 321 319 316 315 314 314 320 320 321 321 320 320 318 317
334 334 333 333 332 332 330 329 329 326 330 330 329 327 326 326 325 319 317 314 312 311 311 315 319 320 320 321 320 320 318 317
334 332 331 329 327 326 329 330 330 328 330 330 327 325 327 326 322 316 314 311 310 315 314 316 318 319 320 320 320 319 318 316
334 331 329 328 324 325 325 328 328 328 328 328 326 326 327 325 318 314 311 309 316 320 319 317 317 320 320 321 320 319 318 315
332 331 329 328 324 325 325 327 326 326 326 325 325 326 327 326 316 318 313 309 318 320 320 320 319 319 320 321 320 319 319 317
330 331 329 327 324 324 324 325 325 325 325 324 323 325 324 325 318 321 317 314 318 321 320 319 319 319 320 320 321 319 319 319
329 327 329 328 325 323 324 324 324 324 324 323 323 323 323 324 320 322 320 318 317 320 319 318 319 319 319 319 320 321 320 319
327 325 326 326 326 324 323 323 323 323 324 324 324 323 324 324 323 322 324 321 321 319 318 318 318 319 318 318 318 319 320 320
327 324 324 325 325 324 322 322 323 323 323 323 322 322 323 323 324 322 323 323 322 319 319 318 317 317 316 315 314 314 316 318
327 324 323 323 325 324 323 322 323 323 321 320 319 321 317 316 319 318 322 323 319 318 318 317 316 316 316 316 318 317 316 315
326 326 324 323 324 324 323 323 323 323 322 319 319 320 317 320 320 321 321 321 319 318 317 317 317 317 317 317 320 321 318 319
326 325 325 324 325 324 324 323 323 322 322 320 321 321 321 321 320 320 319 319 318 318 319 319 319 318 317 318 320 321 321 318
326 325 324 324 324 324 324 323 323 322 322 321 319 319 320 321 320 320 319 319 320 318 319 320 320 319 319 317 319 320 320 320
326 325 323 325 324 324 324 323 323 322 322 321 320 319 319 320 319 319 321 320 321 321 320 320 322 321 321 320 320 320 320 319
325 324 324 323 324 325 324 324 323 323 322 322 321 320 320 318 318 320 321 319 321 321 321 321 322 322 321 320 319 318 318 318

GFSFLT2_925_thetae_084.txt.gz
Theta_e
341 339 337 337 335 331 332 331 330 328 326 325 329 327 333 332 334 335 334 332 330 328 329 330 330 326 323 326 324 324 323 322
340 338 337 335 335 333 331 327 325 326 326 327 329 327 331 331 334 335 333 329 328 328 329 328 325 321 323 324 323 322 321 320
336 337 336 335 332 332 328 326 326 325 326 327 327 325 329 331 333 334 332 328 327 327 327 324 322 320 322 322 321 319 319 319
333 336 336 336 333 331 327 326 325 325 325 328 328 328 330 331 332 332 330 327 326 326 325 323 320 321 321 321 320 318 317 318
334 336 336 335 335 332 328 327 326 326 327 326 328 330 331 333 332 330 326 326 325 325 322 322 320 320 320 320 319 317 317 318
334 336 334 334 335 333 330 329 326 326 328 329 330 331 331 330 328 326 324 325 324 323 320 321 319 320 321 320 320 318 317 318
335 335 335 334 333 332 332 329 325 325 328 328 330 330 330 330 327 326 321 319 318 319 321 319 319 320 321 320 320 319 317 318
335 334 332 332 333 331 331 330 327 327 326 328 330 330 329 328 327 325 321 315 317 318 320 319 320 320 321 320 320 318 317 317
333 332 330 330 329 330 331 330 328 327 330 329 330 329 328 326 324 322 318 314 315 316 314 319 320 319 320 320 320 318 317 317
332 330 329 328 325 324 326 329 329 327 329 329 328 327 326 325 323 317 315 313 312 312 317 318 320 319 320 320 319 318 317 315
331 330 328 327 324 324 326 327 328 328 328 328 327 326 326 326 319 313 312 311 316 315 315 316 319 320 320 320 319 318 317 316
331 330 328 327 324 325 324 326 326 327 326 326 326 326 325 323 318 310 310 312 319 319 317 318 319 319 320 320 319 319 318 317
330 328 327 326 323 323 320 322 324 325 325 325 326 327 326 323 316 316 313 314 319 320 320 319 319 319 319 317 319 319 318 318
327 326 328 326 324 323 323 323 323 324 324 324 325 326 326 324 318 320 315 316 318 321 319 318 318 319 318 316 313 315 318 318
326 325 325 326 325 323 323 322 322 323 323 323 323 324 323 322 321 320 319 319 317 320 319 318 318 318 318 317 315 314 313 316
325 324 323 324 325 324 323 323 321 321 322 322 323 323 323 323 323 320 321 321 321 320 319 317 317 317 316 316 316 316 314 315
324 323 323 323 324 324 323 323 322 323 322 322 322 322 322 321 322 323 322 322 322 321 318 318 317 317 316 317 320 320 319 317
324 323 323 323 323 324 323 323 323 323 322 321 321 321 321 319 320 321 321 321 322 319 319 317 317 316 316 316 319 321 320 319
324 324 324 324 324 324 324 323 322 323 322 321 319 319 321 318 320 320 320 320 322 321 318 318 317 317 316 317 316 318 320 320
324 324 324 324 324 324 323 323 322 322 322 322 320 319 319 320 320 321 320 320 319 319 318 318 319 318 318 318 317 317 317 320

GFSFLT2_925_thetae_090.txt.gz
Theta_e
340 343 344 340 340 339 339 337 335 332 332 329 327 327 328 327 326 323 328 332 333 334 334 333 332 332 331 330 328 327 326 325
340 344 343 340 338 338 337 336 333 329 328 328 329 329 329 328 324 324 328 331 333 334 333 332 331 330 329 327 326 325 324 323
340 339 337 337 337 338 336 336 332 330 329 330 330 329 328 325 325 325 328 329 331 333 331 330 329 328 326 326 325 324 323 322
339 337 335 334 333 334 335 333 333 331 331 331 329 329 326 325 325 328 327 330 330 331 327 326 327 326 325 324 324 322 321 321
338 338 335 333 333 332 331 331 330 329 327 327 329 328 326 326 327 329 329 330 330 329 325 325 325 325 324 323 322 321 320 320
334 336 336 334 333 333 333 331 329 327 326 327 329 328 327 327 326 326 328 329 329 328 325 324 325 324 324 322 321 320 319 320
333 334 336 334 333 333 332 331 328 326 325 326 328 328 327 329 324 326 330 328 329 327 323 322 323 324 322 320 319 319 318 318
332 333 335 333 333 334 332 329 328 326 325 326 326 328 327 328 327 329 329 328 328 325 321 321 323 322 320 319 317 317 318 319
332 333 334 334 334 333 330 331 329 326 326 326 327 325 328 327 328 329 328 327 327 322 320 320 321 321 320 318 316 317 318 319
333 332 334 333 333 332 330 327 330 329 326 327 326 326 326 327 328 327 327 327 326 321 320 320 320 320 319 318 317 317 318 319
333 332 334 333 331 330 331 329 329 329 326 326 326 328 328 327 327 326 326 326 324 321 318 320 319 319 319 318 318 318 318 318
332 332 333 332 329 327 326 327 329 329 328 328 326 328 329 328 326 326 324 323 322 318 317 318 320 319 318 318 318 318 318 318
330 330 330 326 325 322 321 323 325 326 327 328 327 327 327 328 326 324 321 323 321 318 317 318 318 318 318 316 317 317 317 317
328 327 326 324 324 323 323 323 325 326 326 325 327 325 327 327 326 323 320 319 319 318 317 317 317 318 318 316 315 316 317 317
327 326 324 325 322 321 322 323 324 324 323 325 326 326 326 327 326 322 319 316 316 317 316 317 317 318 318 318 314 318 315 317
327 325 325 324 323 321 321 322 322 323 324 325 326 325 326 326 325 322 316 311 314 315 315 317 318 317 318 318 318 317 317 315
326 325 323 322 322 322 321 321 322 322 323 324 326 325 324 322 324 323 315 310 313 314 314 316 318 318 317 318 316 316 316 314
325 324 323 322 322 321 323 322 322 322 322 323 324 324 322 322 322 321 314 312 313 314 316 317 317 318 318 318 317 316 316 316
323 323 323 323 322 321 322 322 322 322 322 321 322 323 322 322 322 320 316 312 310 310 316 319 318 318 318 318 318 318 317 316
322 324 323 323 321 321 321 323 322 322 322 321 319 322 322 324 323 322 319 314 313 313 313 318 319 314 317 317 317 318 318 317

GFSFLT2_925_thetae_093.txt.gz
Theta_e
341 345 339 340 340 339 338 337 334 336 337 337 336 334 333 332 331 327 329 330 330 335 335 335 334 333 332 331 330 330 329 329
340 341 338 340 339 339 337 337 335 334 336 334 333 333 330 328 326 327 326 329 331 335 333 333 333 332 331 330 330 328 328 327
340 338 338 338 339 339 338 337 336 335 333 332 329 327 327 328 329 328 327 327 329 334 332 332 332 331 330 329 327 326 326 325
342 341 339 337 338 337 337 338 335 332 330 327 327 328 329 329 330 327 325 327 327 330 331 332 331 329 327 327 325 324 324 324
341 341 336 336 336 336 337 334 334 331 328 328 331 331 330 329 330 326 327 327 327 330 330 330 328 327 325 324 324 324 323 323
337 339 336 334 333 333 333 334 333 332 330 330 331 329 330 329 329 328 327 327 328 330 329 328 327 325 324 323 323 322 322 321
335 337 337 334 333 332 332 333 332 332 331 330 328 327 332 329 328 329 329 326 327 327 327 326 325 324 323 323 322 322 321 321
332 334 334 335 333 335 332 332 332 331 330 328 327 328 329 328 328 329 327 326 327 326 325 325 324 323 322 322 321 321 320 321
332 332 333 335 334 334 331 331 330 329 328 326 326 328 327 329 328 327 326 326 326 326 323 323 323 322 322 321 320 320 320 320
332 331 332 334 334 334 332 332 328 329 327 326 325 326 327 328 328 326 326 326 326 323 322 322 322 322 321 321 319 319 320 320
332 331 332 332 334 333 330 332 328 327 328 326 326 327 326 327 327 327 327 326 324 320 320 321 321 321 321 320 319 319 320 320
332 330 333 331 332 331 328 330 328 328 329 328 326 327 326 326 326 326 327 325 320 319 320 320 321 321 319 319 319 319 319 320
332 329 330 331 331 327 325 327 328 329 329 328 327 326 325 324 323 326 325 322 320 319 319 320 320 320 319 319 319 319 319 319
330 328 328 329 327 325 324 324 324 326 327 328 327 326 327 326 325 325 322 320 319 318 319 320 319 319 320 320 320 318 318 318
329 327 327 327 325 323 323 323 322 323 326 325 326 326 327 327 326 326 322 322 320 318 318 319 319 319 319 321 322 323 319 318
329 326 325 325 325 322 324 323 323 325 324 325 325 326 325 327 326 326 324 320 319 318 318 318 319 319 318 317 320 320 322 321
328 326 324 323 323 322 322 323 323 324 324 323 325 324 324 325 326 325 322 318 319 318 317 317 318 320 319 317 317 317 318 320
327 326 325 322 322 321 322 321 321 324 323 324 324 324 324 324 324 324 320 317 315 316 317 317 317 319 319 318 317 318 318 318
327 326 324 323 321 321 321 321 323 324 323 323 323 322 322 321 323 322 321 320 314 311 313 316 316 318 318 319 319 318 317 317
326 326 324 322 322 321 320 320 323 324 323 322 322 323 322 321 321 321 321 320 314 311 312 315 315 316 317 318 318 318 318 317

GFSFLT2_925_thetae_096.txt.gz
Theta_e
342 342 340 339 339 339 337 335 335 335 337 338 338 337 335 334 333 333 332 332 329 330 332 336 334 334 333 333 332 332 332 332
342 341 341 342 342 339 339 337 334 334 334 336 336 336 335 334 332 329 329 329 328 329 330 331 333 333 332 332 331 331 331 330
342 342 342 343 343 340 339 338 336 335 335 336 334 336 335 333 332 329 327 329 328 327 328 329 331 333 332 331 330 331 330 329
342 342 341 341 342 341 340 339 337 338 337 335 335 335 335 332 331 328 328 327 327 329 330 327 330 331 330 330 330 330 329 327
340 341 342 342 340 339 339 338 337 336 336 335 335 334 333 332 332 333 333 329 328 328 328 327 330 331 329 329 328 328 325 325
339 339 342 340 339 338 337 337 337 335 333 334 334 335 334 333 333 333 332 330 330 329 324 328 330 330 329 328 327 326 325 324
339 338 339 338 338 337 337 335 335 334 331 331 331 332 332 333 333 332 332 330 329 328 324 329 330 329 328 327 326 325 323 322
339 338 338 338 337 335 334 335 334 333 333 331 329 332 333 332 332 331 330 329 328 328 328 328 328 328 327 326 325 324 322 321
339 337 337 336 336 334 334 333 334 332 332 332 331 332 332 330 330 330 329 327 326 327 327 328 327 327 326 326 324 321 321 321
337 337 336 335 335 333 333 334 332 331 330 330 330 330 330 330 329 330 328 326 326 326 327 326 327 326 326 325 322 321 321 320
337 337 335 335 334 332 332 331 331 332 331 329 330 329 328 329 329 329 328 326 325 325 326 326 327 325 325 324 322 322 322 322
336 337 335 333 333 331 331 332 330 331 331 330 330 327 326 327 327 327 327 325 323 324 325 325 326 325 324 323 322 323 323 322
334 337 335 332 331 330 330 330 329 329 330 328 330 328 327 327 327 327 325 323 324 324 325 326 325 325 323 323 322 322 322 322
332 336 333 333 332 332 331 329 329 330 329 328 329 327 326 326 326 326 324 323 323 323 325 325 324 324 323 323 323 322 321 322
331 335 331 332 333 331 330 329 327 328 328 327 327 327 324 324 324 324 323 322 322 323 324 324 324 324 323 323 324 325 322 322
331 334 328 331 331 331 330 328 327 326 326 327 327 325 325 323 323 323 323 323 323 322 324 324 324 324 324 323 322 322 324 324
331 331 328 329 330 331 329 329 326 326 327 328 326 325 325 324 325 324 323 322 321 323 323 324 324 324 323 323 323 323 323 322
332 328 327 328 329 330 329 328 325 326 326 327 325 325 325 325 325 325 323 321 321 321 321 321 321 322 322 322 322 322 323 321
331 327 327 327 328 328 327 327 325 326 325 326 324 324 323 323 324 324 323 321 320 320 320 319 320 321 321 321 322 321 320 320
330 328 328 327 327 326 326 326 323 326 325 325 325 323 323 323 322 322 324 322 320 320 321 319 319 319 319 321 321 321 321 321

GFSFLT2_925_thetae_099.txt.gz
Theta_e
345 342 340 339 339 339 336 337 336 339 340 340 340 338 337 335 335 335 335 333 334 332 328 332 331 332 333 334 332 333 333 334
345 344 343 342 342 339 338 336 336 336 337 338 338 338 336 335 334 334 333 333 330 326 325 328 329 329 332 333 332 332 332 332
345 344 343 343 342 342 339 338 336 336 335 337 337 338 336 335 334 332 331 332 329 329 329 328 329 328 330 331 331 332 332 330
344 343 343 343 342 343 342 340 340 339 338 337 335 335 337 336 334 331 331 330 328 328 329 328 327 327 329 330 331 331 330 329
343 343 343 342 341 343 342 341 341 340 339 339 337 336 336 335 334 330 331 330 331 329 328 327 326 328 331 332 332 330 329 328
343 342 343 342 341 340 341 341 341 340 340 338 336 335 336 334 334 334 335 333 332 331 330 328 326 329 331 331 329 329 324 327
343 341 342 342 341 339 340 340 339 338 337 338 337 337 335 334 334 333 335 334 332 332 329 326 327 328 330 329 328 326 325 327
343 342 341 341 340 340 338 339 337 337 336 335 335 336 335 334 334 334 335 333 333 330 328 325 327 328 329 328 326 325 324 324
343 342 339 341 340 339 337 336 336 336 337 336 333 333 332 333 334 333 333 332 331 330 326 324 328 328 328 327 326 324 323 322
339 342 338 339 339 338 337 336 335 335 336 336 334 333 332 330 331 331 332 331 330 329 325 327 328 328 327 325 325 322 321 322
336 342 341 338 338 338 336 336 335 334 334 334 334 333 333 332 331 332 331 329 329 327 326 328 327 327 326 325 323 320 321 320
333 339 341 339 337 337 334 334 333 334 334 332 331 332 331 332 330 331 330 328 327 327 328 327 326 326 325 324 322 322 321 322
332 337 340 339 336 335 334 335 332 334 333 332 331 331 330 330 328 329 328 327 326 326 326 326 326 326 324 324 323 324 323 323
327 334 339 339 335 335 334 334 333 333 332 331 331 330 331 329 328 327 326 326 325 325 326 326 326 325 325 324 325 323 323 322
324 330 336 338 336 335 335 334 332 332 332 332 330 331 329 328 326 327 325 325 324 324 325 326 327 325 324 324 325 324 323 322
326 328 333 337 336 335 335 333 332 331 331 329 330 327 326 326 325 326 324 324 324 324 325 325 325 325 324 323 322 321 325 325
327 329 333 335 336 336 335 334 332 330 328 328 328 327 326 324 324 325 324 323 324 324 326 325 325 325 325 324 324 323 323 325
328 331 336 334 334 336 335 334 332 329 327 329 329 325 324 324 323 323 323 323 324 324 325 325 326 325 325 325 324 324 324 323
328 333 335 332 332 334 335 334 331 328 328 329 327 325 323 323 324 323 323 323 324 324 324 325 325 324 324 324 324 323 322 322
329 334 332 329 330 334 334 333 330 328 327 328 327 325 324 324 324 324 323 324 323 323 324 324 323 323 323 323 322 321 322 323

GFSFLT2_925_thetae_102.txt.gz
Theta_e
339 334 336 337 338 337 336 337 338 339 340 341 341 339 338 336 337 337 335 333 328 332 331 327 326 331 331 331 333 333 334 334
345 342 339 338 338 339 337 336 336 337 338 340 340 339 338 337 337 336 335 333 332 331 328 328 327 329 330 330 332 332 333 333
346 345 343 343 343 339 338 337 335 335 336 339 340 338 338 336 336 335 334 333 333 329 326 326 326 326 328 329 330 331 332 332
346 345 344 344 343 341 339 339 337 334 335 336 339 336 337 336 335 334 332 332 330 327 327 328 328 326 326 327 328 331 331 331
345 344 344 345 343 343 342 342 341 339 338 337 338 335 337 335 334 332 330 331 328 329 329 329 328 325 325 326 329 329 330 329
345 344 345 343 345 343 342 341 340 339 340 339 338 336 336 335 334 332 331 330 330 328 329 329 328 327 325 327 329 330 329 329
344 343 343 344 343 340 340 340 341 339 339 338 337 336 337 335 334 332 332 331 332 331 329 328 327 326 327 328 329 328 328 327
344 343 342 343 344 341 339 339 338 339 338 339 338 336 336 335 333 333 332 332 332 331 331 329 326 327 328 327 329 328 327 325
344 343 342 342 343 342 340 337 338 338 337 337 337 337 336 334 333 332 333 332 333 332 330 330 324 327 327 327 327 326 326 325
345 344 342 340 343 342 340 337 338 338 335 336 334 335 335 335 334 332 332 332 332 331 329 328 326 327 328 327 326 324 323 324
344 344 342 340 342 341 340 337 336 336 335 335 335 334 334 333 333 332 331 331 331 331 329 326 326 327 327 327 326 323 322 323
342 344 342 338 338 341 339 339 336 335 335 334 333 333 333 333 333 332 330 331 330 331 329 327 327 327 326 327 322 322 321 322
341 345 344 340 338 338 337 337 335 333 334 335 334 332 332 332 332 330 330 331 330 329 328 328 328 327 326 324 324 322 321 322
326 342 344 341 338 337 335 334 333 332 333 334 332 332 332 331 330 329 329 330 329 329 328 327 327 326 325 324 323 323 322 322
323 331 343 342 338 336 335 334 334 332 334 333 334 331 330 331 330 329 328 329 327 327 327 326 326 325 325 323 323 323 323 322
325 324 332 342 338 335 336 335 335 333 333 332 333 332 331 330 328 327 327 327 326 326 326 326 325 325 325 323 322 323 322 322
325 325 325 340 337 336 336 336 335 333 332 332 331 330 329 327 326 326 326 325 326 325 326 326 326 325 324 323 322 323 322 322
329 328 328 339 338 337 337 337 335 333 332 331 329 328 326 327 326 323 324 325 325 325 324 325 326 325 324 324 323 323 323 322
328 329 330 339 338 337 338 337 336 333 330 330 329 326 325 324 324 323 324 324 324 324 325 324 324 325 325 324 324 324 324 323
324 324 331 337 336 337 337 336 336 333 329 330 328 325 323 324 324 322 323 323 323 325 326 325 325 324 324 324 323 323 323 321

GFSFLT2_925_thetae_105.txt.gz
Theta_e
331 330 329 329 334 336 336 336 337 339 340 340 341 340 338 337 337 336 335 331 330 328 327 328 326 330 333 333 333 334 334 334
331 332 332 332 335 335 335 335 336 337 338 340 341 340 339 337 336 335 335 334 331 327 328 327 326 330 331 332 332 333 334 333
339 335 334 333 335 336 335 335 335 335 336 339 340 339 338 336 336 336 335 333 330 331 329 327 326 329 329 330 331 332 331 332
345 342 339 341 339 337 336 335 334 334 334 338 339 339 338 337 336 336 334 333 331 330 328 327 326 327 328 329 329 331 331 332
346 345 343 343 342 339 337 337 336 334 333 335 338 338 337 336 336 335 334 333 332 328 327 326 326 326 326 327 328 330 331 331
346 344 344 345 343 340 340 339 339 338 336 335 337 335 337 335 335 334 331 332 330 327 327 328 328 328 326 326 327 330 330 330
346 343 343 344 343 342 340 340 339 339 339 338 336 334 336 335 334 333 331 330 329 328 328 329 328 326 325 324 326 329 329 329
346 344 341 342 345 342 341 341 340 338 338 339 337 336 336 335 334 333 332 330 328 328 328 328 328 327 327 325 326 328 328 328
345 344 340 343 342 342 341 340 340 338 339 339 337 336 336 335 334 333 331 331 331 331 330 329 328 327 327 325 327 327 328 326
344 343 342 343 341 342 340 338 338 337 338 336 338 337 336 334 334 333 332 332 332 331 330 330 329 327 326 327 326 327 327 325
343 343 342 341 343 342 341 339 336 338 337 335 335 338 336 334 334 332 331 332 331 331 330 329 328 325 328 326 326 325 326 324
342 343 342 341 341 343 342 340 337 338 338 334 334 334 335 336 334 333 333 331 331 331 330 329 328 326 328 327 327 324 324 323
343 343 341 340 340 342 339 337 336 336 336 336 335 333 333 333 333 333 333 331 330 330 329 328 327 326 328 327 325 324 323 322
343 342 341 340 338 340 340 338 336 335 335 335 335 333 332 332 332 332 332 331 330 330 329 328 326 327 327 324 323 322 322 322
343 342 341 340 338 338 338 336 335 334 333 333 334 333 332 331 331 332 331 330 329 330 329 328 326 326 326 323 322 323 321 323
326 343 341 339 338 336 335 334 334 333 331 331 332 333 331 332 331 330 329 329 329 329 329 327 326 326 325 323 322 322 321 321
322 324 336 341 338 337 335 333 333 333 332 332 332 333 332 331 331 329 327 329 328 328 328 327 326 326 325 324 323 322 322 321
316 318 322 332 339 337 335 334 333 333 332 332 332 332 331 330 329 326 326 326 326 327 327 326 326 325 325 323 322 321 321 321
311 311 316 319 336 336 336 335 335 333 332 331 330 330 328 326 325 323 325 326 325 325 326 326 325 325 325 324 322 322 322 321
305 307 310 314 329 336 336 335 335 333 332 331 329 327 326 325 324 324 323 322 324 324 325 325 325 325 324 323 322 321 324 322

GFSFLT2_925_thetae_108.txt.gz
Theta_e
326 327 329 335 333 334 336 336 338 339 340 340 340 338 338 337 337 336 333 329 327 331 327 327 328 333 333 335 334 334 334 333
328 329 332 335 335 334 335 336 337 338 338 339 340 339 338 337 338 337 335 333 329 330 327 327 327 332 333 333 333 334 334 333
328 331 333 334 334 335 335 336 337 337 338 339 340 339 339 337 337 336 334 332 330 329 327 328 326 331 332 332 331 332 332 332
330 330 333 334 335 334 334 335 336 336 337 338 340 339 339 337 335 335 334 334 331 327 328 328 326 330 331 331 331 332 331 332
340 333 332 334 335 334 334 334 334 335 336 338 339 339 338 336 336 336 335 333 330 330 329 328 327 329 330 330 330 331 329 331
343 340 337 339 338 336 335 334 334 334 334 338 339 338 337 336 336 336 335 332 331 331 328 328 327 326 329 328 328 330 330 331
343 342 341 341 342 338 336 336 335 333 333 336 338 338 337 336 336 335 334 332 332 331 327 326 326 326 326 326 327 329 329 329
344 343 341 341 343 341 338 338 336 336 335 334 337 336 336 335 335 334 333 332 331 330 328 327 327 328 327 326 326 328 329 329
345 345 343 341 343 342 340 339 338 338 337 337 336 334 334 335 334 334 332 331 330 330 328 327 328 328 327 325 325 327 328 328
345 344 344 340 342 344 341 339 339 338 338 338 337 335 335 335 334 333 332 332 330 329 328 328 328 328 327 326 326 327 328 328
344 344 343 341 340 344 341 341 341 338 337 338 337 336 336 335 334 334 333 332 330 329 330 329 329 328 327 327 327 327 327 327
341 343 343 341 341 341 341 340 339 338 338 338 336 337 335 335 334 333 333 331 331 331 331 330 329 329 327 327 327 326 326 326
340 341 341 341 341 340 339 338 338 337 335 336 335 335 337 335 334 334 333 332 331 331 330 327 326 327 327 327 326 326 325 325
337 340 340 340 341 340 339 337 337 337 337 338 336 333 334 336 335 334 333 332 332 331 329 327 326 326 326 327 326 323 323 323
340 340 339 339 339 340 339 337 336 335 336 336 336 334 334 333 334 334 334 333 332 330 329 327 327 326 326 325 323 324 322 321
327 340 338 338 337 338 337 336 335 335 334 334 335 335 335 333 332 332 332 332 331 330 329 328 327 325 326 326 323 322 322 322
313 319 327 335 336 336 337 336 335 334 333 333 333 333 333 333 332 331 330 331 329 328 327 327 327 326 326 325 322 322 321 322
308 311 314 317 327 335 335 335 333 332 332 331 331 331 330 332 331 331 331 329 328 327 326 326 327 327 326 325 322 321 320 321
304 304 307 314 316 326 334 333 332 333 331 331 330 330 330 331 331 331 329 328 328 326 326 327 327 326 326 324 323 321 321 320
300 302 304 306 315 319 331 334 332 332 331 331 330 330 330 330 330 329 327 326 326 325 326 326 327 326 326 324 322 321 321 321

GFSFLT2_925_thetae_111.txt.gz
Theta_e
330 331 333 334 332 334 337 339 340 340 338 337 338 337 337 338 337 335 334 333 332 330 333 334 335 335 335 335 335 335 335 335
330 333 335 335 334 334 336 338 340 340 339 338 338 337 337 337 336 335 333 331 330 330 331 332 332 333 334 335 334 335 334 333
331 331 332 334 334 336 336 337 337 339 340 339 339 338 338 337 337 335 332 331 330 328 328 327 328 333 334 333 333 334 333 333
332 331 331 333 334 336 337 337 338 338 338 339 339 339 338 337 337 337 335 334 330 329 328 327 327 332 333 332 331 332 333 332
332 330 330 331 334 335 336 337 337 337 337 338 339 339 339 337 337 337 334 332 332 330 327 327 327 330 332 332 330 330 329 331
332 330 329 331 332 334 335 336 337 336 337 338 339 339 339 337 336 335 334 333 332 328 328 328 326 329 330 330 330 331 329 329
333 330 329 330 331 333 334 335 335 335 336 337 338 339 338 337 336 335 335 334 332 330 329 327 326 328 329 329 329 330 330 328
339 336 332 331 333 333 333 333 334 334 334 337 338 338 337 336 336 336 335 334 332 331 330 327 327 326 326 327 327 328 329 328
342 341 338 335 337 337 334 334 334 333 333 336 338 337 337 336 336 335 335 334 332 331 331 328 327 326 327 327 326 326 329 328
342 343 341 339 338 339 338 336 335 335 334 334 336 336 336 336 335 335 334 333 332 331 331 328 327 327 327 327 325 326 327 328
343 343 343 341 340 340 341 338 337 336 336 335 335 336 335 334 335 334 334 333 332 331 330 329 327 329 327 328 326 326 326 327
343 343 343 342 341 341 341 340 338 337 337 337 337 336 335 334 334 334 333 332 331 330 330 328 327 328 327 327 327 327 326 327
341 342 342 341 340 339 339 340 339 339 338 337 337 336 335 335 334 334 333 332 331 331 329 329 329 327 327 326 326 327 326 326
334 340 341 341 340 339 338 339 337 338 337 337 337 336 335 335 335 334 334 332 331 330 329 328 327 326 326 326 325 322 324 325
332 338 339 339 339 338 338 337 336 335 337 337 337 337 335 336 335 334 334 332 331 330 330 327 327 326 327 326 325 325 323 322
317 336 338 339 339 338 337 336 336 335 334 334 334 336 335 334 336 335 333 332 331 330 329 329 328 327 326 326 325 323 324 321
308 315 324 332 338 339 337 336 336 336 335 334 335 336 336 334 333 334 334 333 331 331 329 329 328 327 326 326 324 322 323 322
304 307 311 316 324 334 336 335 335 335 334 333 333 334 335 335 333 333 332 331 330 331 329 328 328 327 326 326 326 323 322 322
301 302 306 311 314 319 329 335 335 334 333 333 331 331 332 332 331 332 332 331 330 329 328 327 327 327 326 326 326 324 322 322
299 300 302 306 309 313 317 329 334 333 332 332 331 330 331 330 331 330 331 330 329 329 327 326 326 326 326 326 325 323 321 321

GFSFLT2_925_thetae_114.txt.gz
Theta_e
335 334 333 333 333 335 337 339 339 338 336 337 337 337 338 337 337 335 335 335 333 333 334 336 336 336 336 336 336 336 336 335
334 334 333 335 336 336 337 339 339 338 337 337 337 337 337 337 336 335 335 334 332 333 334 335 335 336 336 336 335 336 335 335
332 331 333 333 337 336 337 339 340 339 338 337 337 337 337 337 336 335 334 333 331 332 333 333 334 335 335 335 334 335 335 334
332 330 333 334 336 337 337 339 340 340 339 338 338 337 336 336 336 335 333 330 331 331 331 329 333 334 334 334 333 333 334 333
333 332 333 335 335 336 337 337 339 340 339 339 338 338 337 337 336 335 332 331 332 330 328 327 327 332 333 333 332 332 331 332
332 332 333 334 335 336 337 337 337 338 339 339 339 338 338 337 337 336 335 334 330 329 329 327 327 330 332 332 331 330 330 330
331 331 333 333 333 334 336 336 336 337 338 338 339 339 338 337 337 336 336 333 331 331 329 328 327 329 330 331 331 330 330 328
333 331 332 333 333 331 332 334 335 336 336 337 338 339 338 337 337 335 335 334 333 332 328 329 327 327 329 329 329 329 330 329
335 332 333 332 332 331 331 332 334 335 335 336 337 338 338 337 337 336 335 334 333 332 330 330 327 326 326 326 327 328 328 329
337 333 332 331 331 331 331 331 332 333 334 335 336 337 338 337 336 336 337 336 334 332 331 330 328 327 326 326 326 326 326 327
340 338 335 333 332 332 333 332 332 332 333 333 335 337 337 337 336 335 337 336 333 332 331 330 328 326 326 327 327 326 326 326
340 340 339 337 336 336 336 335 334 333 333 333 333 336 337 336 336 335 334 334 333 332 331 328 328 326 326 326 327 327 325 325
340 340 341 339 338 337 336 337 337 336 335 334 333 334 335 335 335 334 334 333 333 332 332 328 326 327 326 326 327 326 326 326
337 341 340 339 339 339 337 337 337 336 336 336 335 335 334 335 334 333 333 332 332 332 330 328 328 327 326 326 325 323 325 326
320 335 341 340 339 338 337 337 336 336 336 336 336 336 336 335 334 333 333 332 330 329 329 329 328 327 326 326 326 326 322 323
316 332 338 338 339 338 337 337 336 336 336 335 335 336 336 335 334 335 333 333 331 330 330 330 328 326 326 325 326 323 325 322
308 315 326 331 337 338 337 336 336 336 335 334 335 336 335 336 335 333 333 332 331 331 330 329 328 328 327 326 326 325 323 321
302 307 311 319 326 333 336 336 336 334 334 334 334 334 334 334 334 335 333 332 331 330 330 330 329 328 328 327 326 325 322 321
300 302 304 309 313 317 325 332 335 335 334 333 333 332 332 335 334 334 333 332 332 331 330 329 329 328 328 327 327 326 325 323
298 299 301 304 309 311 313 321 328 333 334 333 332 332 332 333 334 332 333 331 331 331 330 329 329 328 327 327 326 326 326 324

GFSFLT2_925_thetae_117.txt.gz
Theta_e
337 337 338 339 338 338 339 338 337 336 335 335 336 337 338 337 337 337 337 337 336 334 333 334 335 337 337 337 337 337 338 338
337 339 339 339 337 337 338 339 338 336 336 336 336 337 338 337 337 336 336 336 334 333 334 335 336 337 337 337 336 336 337 337
339 340 339 337 336 337 338 339 339 337 336 336 337 339 338 338 337 336 336 335 333 333 335 335 336 336 336 335 334 336 335 335
339 339 338 337 336 337 340 340 340 340 339 338 340 339 339 339 337 335 334 333 332 333 334 335 336 336 335 335 334 334 335 334
336 337 337 335 336 338 346 344 342 340 339 339 339 338 337 337 337 336 334 333 333 333 334 334 334 334 335 335 334 332 332 332
334 336 337 335 335 339 344 341 343 340 339 338 338 338 337 337 337 337 335 331 332 332 331 327 328 332 334 334 333 332 331 331
334 335 336 337 335 338 342 343 343 343 339 339 338 338 337 337 336 336 334 330 333 331 330 328 327 328 332 333 333 332 331 330
333 332 336 336 336 337 338 341 340 340 340 339 339 338 339 336 336 335 334 334 334 331 331 329 328 329 331 331 332 332 331 330
332 331 332 333 336 335 337 337 336 336 338 339 339 338 338 340 336 336 335 335 333 331 330 329 328 327 330 329 330 330 330 330
337 332 332 333 333 334 333 334 334 336 336 337 338 338 338 338 338 337 335 334 335 331 331 329 330 329 329 329 328 329 329 330
338 336 333 333 334 333 332 332 334 335 335 335 336 336 338 337 338 337 335 334 334 332 331 330 329 329 328 327 328 328 328 329
337 337 335 334 334 334 334 333 333 334 334 334 334 335 336 337 337 337 335 333 331 333 330 330 330 331 328 327 326 327 327 326
338 339 337 335 334 334 334 333 333 333 334 334 333 334 335 337 336 336 335 333 331 334 330 329 329 330 328 326 327 327 327 327
338 340 339 336 335 335 335 334 334 333 333 334 333 332 333 335 336 335 335 332 331 329 330 328 328 328 327 327 327 326 325 326
318 339 340 338 338 337 336 335 335 335 334 334 334 332 332 333 335 334 334 334 330 329 329 329 328 327 328 327 327 328 325 323
312 327 338 339 338 338 337 337 336 336 335 334 335 334 333 333 333 334 333 333 332 331 328 329 329 328 327 327 326 325 327 326
307 313 323 333 338 338 337 337 337 336 336 335 334 335 333 334 334 334 333 332 331 331 330 330 330 330 327 327 327 326 325 323
304 308 309 319 327 332 336 337 337 336 336 335 335 334 335 334 334 334 333 332 332 331 330 330 330 329 328 327 326 326 324 323
301 304 305 307 313 320 325 331 334 335 335 335 334 333 333 334 334 333 333 333 332 331 330 330 329 329 328 328 327 326 326 325
297 300 302 303 306 309 314 320 323 328 334 334 335 333 333 333 332 333 333 332 332 330 331 330 330 329 329 328 328 328 327 326

GFSFLT2_925_thetae_120.txt.gz
Theta_e
347 346 342 339 339 338 338 337 336 336 339 341 341 340 340 340 339 338 338 338 338 337 336 337 336 336 337 337 337 337 338 339
347 347 346 345 343 339 338 338 337 336 336 337 338 338 339 339 338 337 338 338 337 336 335 335 335 336 337 337 336 335 338 338
346 346 345 345 345 343 340 338 338 337 337 337 338 341 341 340 339 338 337 337 336 334 333 335 336 337 337 336 335 337 337 337
342 343 344 344 344 344 343 343 341 341 342 342 342 342 342 341 340 338 337 336 334 333 334 335 336 337 337 336 336 338 337 337
339 340 341 341 342 344 342 342 340 342 342 343 342 342 342 341 341 338 338 335 336 335 336 336 336 336 337 336 337 336 337 337
338 338 339 339 340 340 340 343 342 343 343 343 342 343 343 341 340 339 338 337 336 336 336 336 336 336 336 336 336 336 335 335
336 337 337 338 340 338 339 341 342 342 342 343 343 342 342 341 340 339 338 337 337 336 336 335 335 335 335 335 336 336 335 335
333 337 337 337 337 338 339 340 340 342 342 341 344 342 341 341 340 339 338 337 337 337 336 334 333 333 334 335 334 334 334 334
326 337 337 336 336 338 337 338 338 339 339 340 340 340 341 340 340 339 338 337 338 337 336 335 334 333 333 334 334 334 334 334
315 334 337 336 336 336 336 336 336 340 340 339 338 339 340 339 340 338 338 337 336 337 336 335 334 333 332 332 332 333 333 333
314 324 338 337 336 335 335 335 336 337 337 338 339 340 338 337 337 339 338 336 334 336 336 335 334 334 333 332 332 332 331 331
313 317 337 337 336 336 335 335 335 335 337 337 339 338 337 336 337 337 336 335 333 334 334 335 335 334 333 332 332 331 331 331
315 316 329 338 337 336 334 335 334 335 336 336 337 337 336 336 335 334 335 334 333 334 334 335 335 334 333 332 331 330 329 330
318 320 324 337 338 336 334 335 334 334 335 335 337 335 336 338 336 334 333 333 333 332 332 332 333 333 333 331 333 332 329 330
316 326 326 335 337 338 336 335 335 335 334 335 336 336 336 337 335 334 333 333 333 332 332 332 332 331 332 332 334 332 328 329
314 323 332 337 338 338 337 337 337 337 336 335 335 335 336 334 336 334 335 334 333 332 331 331 332 330 330 332 331 329 330 331
309 314 322 334 339 338 338 339 339 339 338 337 336 334 336 336 336 336 335 334 334 333 331 331 332 332 331 331 331 331 329 330
304 309 310 318 325 335 338 338 340 340 339 338 336 335 334 335 336 336 335 335 334 332 331 331 331 332 332 331 331 331 330 330
301 304 306 309 312 316 324 335 336 339 339 339 337 336 334 334 336 336 334 334 334 333 333 332 333 333 333 332 332 331 328 327
298 300 302 305 307 311 314 316 322 328 333 334 338 336 335 335 334 334 334 334 333 334 334 333 333 332 333 332 331 329 328 328

GFSFLT2_925_thetae_123.txt.gz
Theta_e
350 348 344 339 338 338 337 336 336 339 341 341 341 340 340 340 340 340 340 339 339 339 338 337 337 337 337 337 337 337 339 338
350 350 347 346 343 338 338 337 337 339 341 342 342 341 340 340 340 340 339 339 338 337 336 337 336 336 336 336 336 336 339 339
349 349 348 347 347 345 339 338 337 337 340 341 342 342 343 342 341 341 339 339 338 337 336 336 336 336 337 336 336 337 337 339
347 347 347 347 345 346 344 343 341 342 342 343 342 342 343 342 341 341 338 338 338 336 334 335 335 338 338 336 337 336 338 338
342 345 346 344 344 343 344 342 342 342 343 343 342 342 342 341 341 341 340 338 338 335 335 337 337 337 337 336 336 337 337 337
329 343 343 341 344 342 342 340 340 340 342 343 343 343 342 341 341 340 340 339 338 337 337 336 336 337 336 336 337 336 335 338
317 334 342 341 343 341 340 341 341 340 341 342 344 343 343 342 341 340 339 339 339 337 337 337 336 336 336 336 336 336 335 336
315 319 339 341 340 342 340 340 341 342 343 343 344 344 343 342 341 341 339 339 338 337 337 337 337 336 336 336 335 335 335 335
312 316 330 340 340 340 340 340 341 341 341 342 343 343 343 342 340 341 339 340 337 337 336 336 336 335 335 335 334 334 334 334
310 312 316 339 340 338 340 339 340 340 341 340 341 343 342 342 340 340 339 338 338 337 338 337 335 335 335 334 334 334 334 333
310 311 314 326 340 339 339 338 339 338 339 340 340 341 340 341 340 340 342 339 339 338 338 337 336 336 334 334 333 333 333 332
309 311 314 317 339 339 338 338 338 337 337 339 340 339 339 339 340 339 339 339 337 338 338 338 337 335 334 334 333 332 332 331
309 310 314 318 333 339 339 339 337 337 336 337 341 339 339 339 338 338 338 339 337 336 337 338 337 336 336 333 334 334 333 333
314 315 316 318 320 338 338 338 336 336 335 337 340 339 338 338 338 337 337 337 337 336 336 336 337 336 336 334 336 333 332 332
313 314 314 317 321 337 338 338 336 336 335 337 339 340 337 337 337 337 336 336 336 336 335 335 336 336 335 333 334 334 330 333
305 308 313 317 322 330 338 338 337 336 335 336 338 339 338 336 337 337 335 335 335 335 335 335 335 333 333 334 334 331 331 331
300 304 312 314 318 326 338 337 338 336 336 336 337 339 338 337 336 336 335 334 334 335 334 335 334 334 332 333 334 334 332 332
298 303 308 309 315 331 338 337 339 337 338 339 339 338 337 338 336 335 335 334 334 334 333 333 334 334 333 333 334 334 332 333
298 301 304 306 312 317 325 336 337 339 340 340 339 337 336 338 338 338 335 335 334 334 333 333 332 333 333 334 334 333 332 331
297 300 302 304 308 311 313 317 327 326 326 325 336 336 336 336 336 338 338 336 334 334 334 333 333 333 333 334 334 334 333 332

GFSFLT2_925_thetae_126.txt.gz
Theta_e
353 351 345 339 338 338 337 337 337 337 338 341 342 341 339 339 339 340 340 340 339 339 338 338 338 337 337 336 336 337 338 337
350 351 346 341 339 338 337 337 337 338 339 341 341 340 340 339 340 340 339 339 339 339 338 337 337 336 336 336 336 336 337 337
346 349 348 346 345 342 338 338 338 339 341 342 342 341 341 340 340 340 339 339 339 338 337 336 336 336 336 336 336 335 335 338
339 344 348 348 347 347 343 339 338 338 340 342 343 344 343 343 342 342 339 338 338 338 336 336 335 335 335 336 335 337 337 336
316 343 344 345 348 347 346 343 342 341 342 343 342 343 343 342 342 341 340 338 338 337 335 335 333 339 337 334 334 336 337 335
313 318 344 344 345 346 347 345 344 343 342 343 342 343 343 340 341 341 340 338 339 337 335 334 336 337 338 337 336 336 336 334
310 312 336 344 343 341 344 344 344 343 343 342 343 342 343 342 341 341 341 340 339 337 338 335 337 337 336 336 334 337 335 336
310 310 312 343 342 339 343 342 343 342 342 344 341 344 344 342 340 341 339 341 339 338 338 338 338 336 336 336 335 335 335 335
310 310 310 313 342 341 338 343 343 340 344 343 340 344 344 342 341 341 340 338 339 338 338 337 336 336 336 335 334 334 334 334
310 310 309 310 320 341 340 338 342 342 342 344 342 342 345 343 341 342 341 339 338 338 337 336 336 336 335 335 334 334 334 334
314 311 311 309 312 331 338 338 341 342 340 340 343 344 343 342 342 341 341 339 339 337 337 336 337 335 335 335 335 335 334 333
313 314 312 311 311 317 337 338 337 341 340 340 341 341 343 340 342 342 340 340 337 337 337 337 337 336 336 334 334 333 333 333
309 310 313 315 311 320 335 338 336 339 340 341 341 340 340 339 340 342 341 341 340 338 338 338 338 337 335 334 333 333 332 333
304 305 307 309 314 317 322 333 336 337 340 339 342 340 340 339 339 338 339 339 339 337 337 339 338 337 335 335 332 334 334 333
300 301 302 305 308 314 316 318 333 335 338 338 342 341 341 340 338 337 337 337 337 335 335 336 338 336 336 334 332 331 332 333
298 299 300 302 306 310 316 318 321 334 337 337 341 342 340 340 337 337 336 336 335 336 334 335 335 337 336 335 332 335 332 332
295 297 298 301 304 310 312 314 318 323 336 337 339 342 340 339 336 337 336 335 335 335 334 335 334 336 336 334 334 334 335 333
293 294 298 300 304 307 312 316 319 321 335 336 339 342 339 338 335 337 336 334 334 334 334 334 333 335 335 333 332 332 333 333
291 293 297 300 302 307 313 317 323 329 334 336 338 341 340 337 336 336 336 334 334 333 334 333 333 334 334 333 333 333 334 333
290 292 295 299 301 306 310 315 318 324 326 326 337 339 339 339 336 335 335 335 334 333 333 334 333 333 333 332 333 333 334 333

GFSFLT2_925_thetae_129.txt.gz
Theta_e
352 351 349 343 338 337 337 336 336 336 337 340 341 341 339 338 338 339 339 338 338 338 337 338 337 337 336 336 337 337 338 336
343 349 348 345 339 337 337 337 336 337 337 339 341 341 340 339 339 339 339 339 338 338 337 337 337 336 336 335 335 336 337 337
335 346 348 347 340 338 338 337 337 337 339 340 341 341 340 340 339 340 340 339 338 338 337 336 336 335 335 334 335 334 336 337
313 341 348 349 345 342 339 338 337 338 339 341 341 341 340 340 339 340 339 339 339 338 337 336 336 334 333 334 333 336 338 337
310 310 326 347 346 347 346 343 338 337 339 342 341 341 341 341 340 341 341 339 339 338 337 335 335 333 333 332 331 336 336 335
310 310 310 326 345 343 344 346 343 338 337 340 342 342 344 342 342 341 341 339 338 337 336 334 332 337 338 334 334 336 336 335
310 309 309 310 317 341 342 341 345 343 340 339 342 341 342 344 342 342 340 339 337 337 336 333 332 337 338 337 336 334 336 334
311 312 311 310 310 322 339 342 343 345 343 341 341 341 340 342 341 341 340 339 337 337 336 333 335 337 337 336 335 334 334 335
308 310 312 311 310 314 326 340 339 343 343 343 341 342 340 344 341 341 340 340 338 339 337 336 336 337 336 336 335 334 334 334
304 305 308 311 313 312 309 322 336 337 341 342 342 341 341 344 341 340 340 340 339 339 337 338 337 336 336 335 335 334 333 333
300 302 304 306 310 314 315 311 333 334 337 341 343 342 341 344 341 340 341 340 338 338 338 337 336 335 336 336 335 334 333 334
298 299 300 303 305 308 314 319 318 334 335 338 342 343 341 343 342 340 341 341 338 338 337 336 335 335 335 335 334 334 334 334
296 296 298 299 301 304 307 312 317 334 331 335 340 342 341 341 343 342 341 341 339 337 337 336 336 336 335 334 334 334 334 333
294 295 296 297 299 301 303 307 314 316 324 334 335 339 339 342 342 342 342 340 339 338 336 336 336 336 335 332 329 331 333 333
293 293 294 295 297 299 302 305 310 317 317 324 334 337 338 341 342 341 342 340 339 338 337 337 337 337 336 333 329 329 329 333
291 291 292 293 295 298 301 305 310 312 316 318 323 334 338 339 340 339 340 341 340 338 338 338 337 337 336 334 331 330 326 330
290 290 291 293 295 298 302 305 308 310 311 315 316 327 337 339 339 338 337 337 337 338 336 333 335 335 336 335 334 332 334 330
289 290 291 292 295 298 301 303 306 309 312 315 316 319 332 339 339 337 336 336 335 335 334 332 333 334 334 335 335 334 331 329
289 290 291 292 295 299 301 304 310 312 313 315 319 318 318 338 339 337 336 335 335 334 333 333 333 332 333 334 335 333 333 330
289 290 291 292 295 298 301 304 309 314 316 321 322 320 320 336 338 336 336 335 335 334 333 333 333 333 332 332 333 332 332 330